Wetterdaten: Mittwoch, 05.10.2016
Datum Zeit Temp. A. Feuchte A. Luftdruck Regen Wind Richtung Richtung Sonnenschein ET UV Solar Taupunkt Windchill Windben Empfang
05.10.2016 00:00 7,1 C 84 % 1028,6 hPa 0,0 l/m 2,3 km/h (1 Bft) N-NO 24 0 min 0,000 mm 0,0 UV-I 0 W/m 4,6 C 7,1 C 3,2 km/h (1 Bft) 98,00 %
05.10.2016 00:02 7,0 C 84 % 1028,6 hPa 0,0 l/m 2,3 km/h (1 Bft) N-NO 24 0 min 0,000 mm 0,0 UV-I 0 W/m 4,5 C 7,0 C 3,2 km/h (1 Bft) 97,62 %
05.10.2016 00:04 6,9 C 85 % 1028,6 hPa 0,0 l/m 3,3 km/h (1 Bft) N-NO 24 0 min 0,000 mm 0,0 UV-I 0 W/m 4,6 C 6,9 C 4,8 km/h (1 Bft) 98,00 %
05.10.2016 00:06 6,8 C 86 % 1028,6 hPa 0,0 l/m 4,2 km/h (1 Bft) N-NO 24 0 min 0,000 mm 0,0 UV-I 0 W/m 4,6 C 6,8 C 6,4 km/h (2 Bft) 97,22 %
05.10.2016 00:08 6,8 C 85 % 1028,6 hPa 0,0 l/m 4,1 km/h (1 Bft) N-NO 24 0 min 0,000 mm 0,0 UV-I 0 W/m 4,5 C 6,8 C 4,8 km/h (1 Bft) 98,00 %
05.10.2016 00:10 6,7 C 85 % 1028,5 hPa 0,0 l/m 3,7 km/h (1 Bft) N-NO 24 0 min 0,000 mm 0,0 UV-I 0 W/m 4,4 C 6,7 C 4,8 km/h (1 Bft) 98,08 %
05.10.2016 00:12 6,7 C 85 % 1028,5 hPa 0,0 l/m 4,0 km/h (1 Bft) N-NO 24 0 min 0,000 mm 0,0 UV-I 0 W/m 4,4 C 6,7 C 4,8 km/h (1 Bft) 100,00 %
05.10.2016 00:14 6,7 C 85 % 1028,5 hPa 0,0 l/m 3,4 km/h (1 Bft) N-NO 24 0 min 0,000 mm 0,0 UV-I 0 W/m 4,4 C 6,7 C 4,8 km/h (1 Bft) 100,00 %
05.10.2016 00:16 6,7 C 86 % 1028,5 hPa 0,0 l/m 1,8 km/h (1 Bft) N-NO 24 0 min 0,000 mm 0,0 UV-I 0 W/m 4,5 C 6,7 C 3,2 km/h (1 Bft) 100,00 %
05.10.2016 00:18 6,6 C 87 % 1028,5 hPa 0,0 l/m 0,9 km/h (0 Bft) N-NO 24 0 min 0,000 mm 0,0 UV-I 0 W/m 4,6 C 6,6 C 1,6 km/h (1 Bft) 100,00 %
05.10.2016 00:20 6,6 C 87 % 1028,5 hPa 0,0 l/m 1,1 km/h (1 Bft) N-NO 24 0 min 0,000 mm 0,0 UV-I 0 W/m 4,6 C 6,6 C 1,6 km/h (1 Bft) 97,37 %
05.10.2016 00:22 6,6 C 87 % 1028,6 hPa 0,0 l/m 0,7 km/h (0 Bft) N-NO 24 0 min 0,000 mm 0,0 UV-I 0 W/m 4,6 C 6,6 C 1,6 km/h (1 Bft) 100,00 %
05.10.2016 00:24 6,5 C 87 % 1028,6 hPa 0,0 l/m 0,1 km/h (0 Bft) N-NO 24 0 min 0,000 mm 0,0 UV-I 0 W/m 4,5 C 6,5 C 1,6 km/h (1 Bft) 100,00 %
05.10.2016 00:26 6,4 C 87 % 1028,6 hPa 0,0 l/m 0,3 km/h (0 Bft) N-NO 24 0 min 0,000 mm 0,0 UV-I 0 W/m 4,4 C 6,4 C 1,6 km/h (1 Bft) 100,00 %
05.10.2016 00:28 6,3 C 88 % 1028,5 hPa 0,0 l/m 0,3 km/h (0 Bft) N-NO 24 0 min 0,000 mm 0,0 UV-I 0 W/m 4,5 C 6,3 C 1,6 km/h (1 Bft) 100,00 %
05.10.2016 00:30 6,2 C 88 % 1028,5 hPa 0,0 l/m 0,0 km/h (0 Bft) N-NO 24 0 min 0,000 mm 0,0 UV-I 0 W/m 4,4 C 6,2 C 0,0 km/h (0 Bft) 100,00 %
05.10.2016 00:32 6,2 C 88 % 1028,5 hPa 0,0 l/m 0,0 km/h (0 Bft) N-NO 24 0 min 0,000 mm 0,0 UV-I 0 W/m 4,4 C 6,2 C 0,0 km/h (0 Bft) 100,00 %
05.10.2016 00:34 6,1 C 89 % 1028,5 hPa 0,0 l/m 0,0 km/h (0 Bft) N-NO 24 0 min 0,000 mm 0,0 UV-I 0 W/m 4,4 C 6,1 C 1,6 km/h (1 Bft) 100,00 %
05.10.2016 00:36 6,1 C 89 % 1028,5 hPa 0,0 l/m 0,6 km/h (0 Bft) N-NO 24 0 min 0,000 mm 0,0 UV-I 0 W/m 4,4 C 6,1 C 3,2 km/h (1 Bft) 100,00 %
05.10.2016 00:38 5,9 C 89 % 1028,5 hPa 0,0 l/m 0,4 km/h (0 Bft) N-NO 24 0 min 0,000 mm 0,0 UV-I 0 W/m 4,2 C 5,9 C 1,6 km/h (1 Bft) 100,00 %
05.10.2016 00:40 5,9 C 89 % 1028,5 hPa 0,0 l/m 0,1 km/h (0 Bft) N-NO 24 0 min 0,000 mm 0,0 UV-I 0 W/m 4,2 C 5,9 C 1,6 km/h (1 Bft) 100,00 %
05.10.2016 00:42 5,8 C 89 % 1028,5 hPa 0,0 l/m 0,2 km/h (0 Bft) N-NO 28 0 min 0,000 mm 0,0 UV-I 0 W/m 4,1 C 5,8 C 1,6 km/h (1 Bft) 100,00 %
05.10.2016 00:44 5,7 C 89 % 1028,5 hPa 0,0 l/m 0,8 km/h (0 Bft) NO 34 0 min 0,000 mm 0,0 UV-I 0 W/m 4,0 C 5,7 C 1,6 km/h (1 Bft) 100,00 %
05.10.2016 00:46 5,7 C 89 % 1028,5 hPa 0,0 l/m 2,4 km/h (1 Bft) O-NO 69 0 min 0,000 mm 0,0 UV-I 0 W/m 4,0 C 5,7 C 4,8 km/h (1 Bft) 98,36 %
05.10.2016 00:48 5,6 C 89 % 1028,5 hPa 0,0 l/m 3,3 km/h (1 Bft) O-SO 113 0 min 0,000 mm 0,0 UV-I 0 W/m 3,9 C 5,6 C 4,8 km/h (1 Bft) 100,00 %
05.10.2016 00:50 5,6 C 89 % 1028,5 hPa 0,0 l/m 3,1 km/h (1 Bft) S-SO 161 0 min 0,000 mm 0,0 UV-I 0 W/m 3,9 C 5,6 C 6,4 km/h (2 Bft) 100,00 %
05.10.2016 00:52 5,5 C 90 % 1028,5 hPa 0,0 l/m 2,3 km/h (1 Bft) S-SO 161 0 min 0,000 mm 0,0 UV-I 0 W/m 4,0 C 5,5 C 3,2 km/h (1 Bft) 100,00 %
05.10.2016 00:54 5,4 C 90 % 1028,5 hPa 0,0 l/m 1,5 km/h (1 Bft) S-SO 161 0 min 0,000 mm 0,0 UV-I 0 W/m 3,9 C 5,4 C 3,2 km/h (1 Bft) 100,00 %
05.10.2016 00:56 5,3 C 90 % 1028,4 hPa 0,0 l/m 1,3 km/h (1 Bft) S-SO 161 0 min 0,000 mm 0,0 UV-I 0 W/m 3,8 C 5,3 C 3,2 km/h (1 Bft) 100,00 %
05.10.2016 00:58 5,2 C 91 % 1028,5 hPa 0,0 l/m 0,3 km/h (0 Bft) S-SO 161 0 min 0,000 mm 0,0 UV-I 0 W/m 3,9 C 5,2 C 1,6 km/h (1 Bft) 100,00 %
05.10.2016 01:00 5,1 C 91 % 1028,5 hPa 0,0 l/m 1,5 km/h (1 Bft) S-SO 165 0 min 0,000 mm 0,0 UV-I 0 W/m 3,8 C 5,1 C 6,4 km/h (2 Bft) 100,00 %
05.10.2016 01:02 5,1 C 91 % 1028,5 hPa 0,0 l/m 5,2 km/h (1 Bft) S 171 0 min 0,000 mm 0,0 UV-I 0 W/m 3,8 C 5,1 C 6,4 km/h (2 Bft) 98,00 %
05.10.2016 01:04 5,0 C 91 % 1028,5 hPa 0,0 l/m 4,0 km/h (1 Bft) S 180 0 min 0,000 mm 0,0 UV-I 0 W/m 3,7 C 5,0 C 6,4 km/h (2 Bft) 98,11 %
05.10.2016 01:06 4,9 C 91 % 1028,5 hPa 0,0 l/m 4,0 km/h (1 Bft) S 175 0 min 0,000 mm 0,0 UV-I 0 W/m 3,6 C 4,9 C 6,4 km/h (2 Bft) 100,00 %
05.10.2016 01:08 4,9 C 92 % 1028,5 hPa 0,0 l/m 1,6 km/h (1 Bft) S 175 0 min 0,000 mm 0,0 UV-I 0 W/m 3,7 C 4,9 C 4,8 km/h (1 Bft) 100,00 %
05.10.2016 01:10 4,9 C 92 % 1028,5 hPa 0,0 l/m 2,0 km/h (1 Bft) S 175 0 min 0,000 mm 0,0 UV-I 0 W/m 3,7 C 4,9 C 3,2 km/h (1 Bft) 97,14 %
05.10.2016 01:12 4,8 C 92 % 1028,5 hPa 0,0 l/m 1,0 km/h (0 Bft) S 175 0 min 0,000 mm 0,0 UV-I 0 W/m 3,6 C 4,8 C 1,6 km/h (1 Bft) 100,00 %
05.10.2016 01:14 4,8 C 92 % 1028,5 hPa 0,0 l/m 3,1 km/h (1 Bft) S 172 0 min 0,000 mm 0,0 UV-I 0 W/m 3,6 C 4,8 C 4,8 km/h (1 Bft) 100,00 %
05.10.2016 01:16 4,8 C 92 % 1028,4 hPa 0,0 l/m 1,7 km/h (1 Bft) S 172 0 min 0,000 mm 0,0 UV-I 0 W/m 3,6 C 4,8 C 3,2 km/h (1 Bft) 100,00 %
05.10.2016 01:18 4,8 C 93 % 1028,4 hPa 0,0 l/m 2,9 km/h (1 Bft) S 172 0 min 0,000 mm 0,0 UV-I 0 W/m 3,8 C 4,8 C 8,0 km/h (2 Bft) 100,00 %
05.10.2016 01:20 4,8 C 93 % 1028,4 hPa 0,0 l/m 2,7 km/h (1 Bft) S 172 0 min 0,000 mm 0,0 UV-I 0 W/m 3,8 C 4,8 C 4,8 km/h (1 Bft) 100,00 %
05.10.2016 01:22 4,8 C 93 % 1028,4 hPa 0,0 l/m 1,2 km/h (1 Bft) S 172 0 min 0,000 mm 0,0 UV-I 0 W/m 3,8 C 4,8 C 1,6 km/h (1 Bft) 100,00 %
05.10.2016 01:24 4,8 C 93 % 1028,5 hPa 0,0 l/m 0,3 km/h (0 Bft) S 172 0 min 0,000 mm 0,0 UV-I 0 W/m 3,8 C 4,8 C 1,6 km/h (1 Bft) 100,00 %
05.10.2016 01:26 4,8 C 93 % 1028,5 hPa 0,0 l/m 1,7 km/h (1 Bft) S 172 0 min 0,000 mm 0,0 UV-I 0 W/m 3,8 C 4,8 C 3,2 km/h (1 Bft) 100,00 %
05.10.2016 01:28 4,8 C 93 % 1028,5 hPa 0,0 l/m 2,3 km/h (1 Bft) S 172 0 min 0,000 mm 0,0 UV-I 0 W/m 3,8 C 4,8 C 3,2 km/h (1 Bft) 100,00 %
05.10.2016 01:30 4,8 C 93 % 1028,5 hPa 0,0 l/m 2,8 km/h (1 Bft) S 172 0 min 0,000 mm 0,0 UV-I 0 W/m 3,8 C 4,8 C 4,8 km/h (1 Bft) 97,87 %
05.10.2016 01:32 4,7 C 93 % 1028,5 hPa 0,0 l/m 1,1 km/h (1 Bft) S 172 0 min 0,000 mm 0,0 UV-I 0 W/m 3,7 C 4,7 C 3,2 km/h (1 Bft) 100,00 %
05.10.2016 01:34 4,7 C 93 % 1028,6 hPa 0,0 l/m 0,9 km/h (0 Bft) S 172 0 min 0,000 mm 0,0 UV-I 0 W/m 3,7 C 4,7 C 1,6 km/h (1 Bft) 98,00 %
05.10.2016 01:36 4,7 C 93 % 1028,6 hPa 0,0 l/m 0,8 km/h (0 Bft) S 172 0 min 0,000 mm 0,0 UV-I 0 W/m 3,7 C 4,7 C 1,6 km/h (1 Bft) 96,00 %
05.10.2016 01:38 4,6 C 93 % 1028,5 hPa 0,0 l/m 0,2 km/h (0 Bft) S 172 0 min 0,000 mm 0,0 UV-I 0 W/m 3,6 C 4,6 C 1,6 km/h (1 Bft) 100,00 %
05.10.2016 01:40 4,6 C 93 % 1028,5 hPa 0,0 l/m 0,1 km/h (0 Bft) S 172 0 min 0,000 mm 0,0 UV-I 0 W/m 3,6 C 4,6 C 1,6 km/h (1 Bft) 98,25 %
05.10.2016 01:42 4,5 C 93 % 1028,5 hPa 0,0 l/m 0,4 km/h (0 Bft) S 172 0 min 0,000 mm 0,0 UV-I 0 W/m 3,5 C 4,5 C 1,6 km/h (1 Bft) 96,00 %
05.10.2016 01:44 4,5 C 93 % 1028,5 hPa 0,0 l/m 0,9 km/h (0 Bft) S 172 0 min 0,000 mm 0,0 UV-I 0 W/m 3,5 C 4,5 C 3,2 km/h (1 Bft) 95,74 %
05.10.2016 01:46 4,4 C 93 % 1028,6 hPa 0,0 l/m 0,2 km/h (0 Bft) S 172 0 min 0,000 mm 0,0 UV-I 0 W/m 3,4 C 4,4 C 1,6 km/h (1 Bft) 97,56 %
05.10.2016 01:48 4,4 C 93 % 1028,6 hPa 0,0 l/m 0,0 km/h (0 Bft) S 172 0 min 0,000 mm 0,0 UV-I 0 W/m 3,4 C 4,4 C 1,6 km/h (1 Bft) 95,74 %
05.10.2016 01:50 4,4 C 93 % 1028,6 hPa 0,0 l/m 0,0 km/h (0 Bft) S 172 0 min 0,000 mm 0,0 UV-I 0 W/m 3,4 C 4,4 C 0,0 km/h (0 Bft) 98,00 %
05.10.2016 01:52 4,4 C 93 % 1028,6 hPa 0,0 l/m 0,1 km/h (0 Bft) S 172 0 min 0,000 mm 0,0 UV-I 0 W/m 3,4 C 4,4 C 1,6 km/h (1 Bft) 96,00 %
05.10.2016 01:54 4,4 C 93 % 1028,6 hPa 0,0 l/m 0,0 km/h (0 Bft) S 172 0 min 0,000 mm 0,0 UV-I 0 W/m 3,4 C 4,4 C 0,0 km/h (0 Bft) 95,12 %
05.10.2016 01:56 4,4 C 93 % 1028,6 hPa 0,0 l/m 0,5 km/h (0 Bft) S 172 0 min 0,000 mm 0,0 UV-I 0 W/m 3,4 C 4,4 C 1,6 km/h (1 Bft) 95,74 %
05.10.2016 01:58 4,3 C 93 % 1028,5 hPa 0,0 l/m 1,0 km/h (0 Bft) S 172 0 min 0,000 mm 0,0 UV-I 0 W/m 3,3 C 4,3 C 1,6 km/h (1 Bft) 98,11 %
05.10.2016 02:00 4,3 C 93 % 1028,6 hPa 0,0 l/m 1,2 km/h (1 Bft) S 172 0 min 0,000 mm 0,0 UV-I 0 W/m 3,3 C 4,3 C 1,6 km/h (1 Bft) 97,14 %
05.10.2016 02:02 4,3 C 93 % 1028,6 hPa 0,0 l/m 1,6 km/h (1 Bft) S 172 0 min 0,000 mm 0,0 UV-I 0 W/m 3,3 C 4,3 C 3,2 km/h (1 Bft) 98,11 %
05.10.2016 02:04 4,3 C 93 % 1028,6 hPa 0,0 l/m 2,3 km/h (1 Bft) S 172 0 min 0,000 mm 0,0 UV-I 0 W/m 3,3 C 4,3 C 3,2 km/h (1 Bft) 98,00 %
05.10.2016 02:06 4,2 C 93 % 1028,6 hPa 0,0 l/m 2,8 km/h (1 Bft) S 172 0 min 0,000 mm 0,0 UV-I 0 W/m 3,2 C 4,2 C 3,2 km/h (1 Bft) 97,87 %
05.10.2016 02:08 4,2 C 93 % 1028,6 hPa 0,0 l/m 2,9 km/h (1 Bft) S 172 0 min 0,000 mm 0,0 UV-I 0 W/m 3,2 C 4,2 C 4,8 km/h (1 Bft) 97,44 %
05.10.2016 02:10 4,1 C 93 % 1028,6 hPa 0,0 l/m 2,2 km/h (1 Bft) S 172 0 min 0,000 mm 0,0 UV-I 0 W/m 3,1 C 4,1 C 3,2 km/h (1 Bft) 98,00 %
05.10.2016 02:12 4,1 C 93 % 1028,6 hPa 0,0 l/m 2,4 km/h (1 Bft) S 172 0 min 0,000 mm 0,0 UV-I 0 W/m 3,1 C 4,1 C 3,2 km/h (1 Bft) 95,74 %
05.10.2016 02:14 4,1 C 93 % 1028,6 hPa 0,0 l/m 2,7 km/h (1 Bft) S 172 0 min 0,000 mm 0,0 UV-I 0 W/m 3,1 C 4,1 C 4,8 km/h (1 Bft) 97,87 %
05.10.2016 02:16 4,0 C 93 % 1028,6 hPa 0,0 l/m 3,0 km/h (1 Bft) S 172 0 min 0,000 mm 0,0 UV-I 0 W/m 3,0 C 4,0 C 4,8 km/h (1 Bft) 97,87 %
05.10.2016 02:18 4,0 C 93 % 1028,6 hPa 0,0 l/m 2,8 km/h (1 Bft) S 172 0 min 0,000 mm 0,0 UV-I 0 W/m 3,0 C 4,0 C 4,8 km/h (1 Bft) 97,87 %
05.10.2016 02:20 3,9 C 93 % 1028,6 hPa 0,0 l/m 2,3 km/h (1 Bft) S 172 0 min 0,000 mm 0,0 UV-I 0 W/m 2,9 C 3,9 C 3,2 km/h (1 Bft) 100,00 %
05.10.2016 02:22 3,9 C 94 % 1028,6 hPa 0,0 l/m 3,7 km/h (1 Bft) S 172 0 min 0,000 mm 0,0 UV-I 0 W/m 3,0 C 3,9 C 4,8 km/h (1 Bft) 100,00 %
05.10.2016 02:24 3,9 C 94 % 1028,6 hPa 0,0 l/m 4,4 km/h (1 Bft) S 172 0 min 0,000 mm 0,0 UV-I 0 W/m 3,0 C 3,9 C 4,8 km/h (1 Bft) 100,00 %
05.10.2016 02:26 3,9 C 93 % 1028,6 hPa 0,0 l/m 3,6 km/h (1 Bft) S 172 0 min 0,000 mm 0,0 UV-I 0 W/m 2,9 C 3,9 C 8,0 km/h (2 Bft) 97,56 %
05.10.2016 02:28 3,8 C 94 % 1028,6 hPa 0,0 l/m 2,2 km/h (1 Bft) S 172 0 min 0,000 mm 0,0 UV-I 0 W/m 2,9 C 3,8 C 3,2 km/h (1 Bft) 100,00 %
05.10.2016 02:30 3,8 C 94 % 1028,6 hPa 0,0 l/m 2,4 km/h (1 Bft) S 172 0 min 0,000 mm 0,0 UV-I 0 W/m 2,9 C 3,8 C 4,8 km/h (1 Bft) 100,00 %
05.10.2016 02:32 3,7 C 94 % 1028,6 hPa 0,0 l/m 1,4 km/h (1 Bft) S 172 0 min 0,000 mm 0,0 UV-I 0 W/m 2,8 C 3,7 C 3,2 km/h (1 Bft) 100,00 %
05.10.2016 02:34 3,7 C 94 % 1028,6 hPa 0,0 l/m 1,2 km/h (1 Bft) S 172 0 min 0,000 mm 0,0 UV-I 0 W/m 2,8 C 3,7 C 3,2 km/h (1 Bft) 100,00 %
05.10.2016 02:36 3,7 C 94 % 1028,6 hPa 0,0 l/m 1,1 km/h (1 Bft) S 172 0 min 0,000 mm 0,0 UV-I 0 W/m 2,8 C 3,7 C 3,2 km/h (1 Bft) 100,00 %
05.10.2016 02:38 3,7 C 94 % 1028,6 hPa 0,0 l/m 0,9 km/h (0 Bft) S 172 0 min 0,000 mm 0,0 UV-I 0 W/m 2,8 C 3,7 C 1,6 km/h (1 Bft) 95,12 %
05.10.2016 02:40 3,8 C 94 % 1028,6 hPa 0,0 l/m 2,0 km/h (1 Bft) S 172 0 min 0,000 mm 0,0 UV-I 0 W/m 2,9 C 3,8 C 3,2 km/h (1 Bft) 100,00 %
05.10.2016 02:42 3,7 C 95 % 1028,6 hPa 0,0 l/m 2,9 km/h (1 Bft) S 172 0 min 0,000 mm 0,0 UV-I 0 W/m 3,0 C 3,7 C 3,2 km/h (1 Bft) 100,00 %
05.10.2016 02:44 3,7 C 94 % 1028,5 hPa 0,0 l/m 2,6 km/h (1 Bft) S 172 0 min 0,000 mm 0,0 UV-I 0 W/m 2,8 C 3,7 C 3,2 km/h (1 Bft) 98,11 %
05.10.2016 02:46 3,7 C 94 % 1028,6 hPa 0,0 l/m 2,7 km/h (1 Bft) S 172 0 min 0,000 mm 0,0 UV-I 0 W/m 2,8 C 3,7 C 4,8 km/h (1 Bft) 95,74 %
05.10.2016 02:48 3,7 C 94 % 1028,5 hPa 0,0 l/m 3,0 km/h (1 Bft) S 172 0 min 0,000 mm 0,0 UV-I 0 W/m 2,8 C 3,7 C 4,8 km/h (1 Bft) 100,00 %
05.10.2016 02:50 3,7 C 94 % 1028,5 hPa 0,0 l/m 3,5 km/h (1 Bft) S 180 0 min 0,000 mm 0,0 UV-I 0 W/m 2,8 C 3,7 C 6,4 km/h (2 Bft) 100,00 %
05.10.2016 02:52 3,7 C 94 % 1028,5 hPa 0,0 l/m 3,7 km/h (1 Bft) S 180 0 min 0,000 mm 0,0 UV-I 0 W/m 2,8 C 3,7 C 4,8 km/h (1 Bft) 100,00 %
05.10.2016 02:54 3,6 C 94 % 1028,5 hPa 0,0 l/m 3,8 km/h (1 Bft) S 180 0 min 0,000 mm 0,0 UV-I 0 W/m 2,7 C 3,6 C 4,8 km/h (1 Bft) 100,00 %
05.10.2016 02:56 3,6 C 94 % 1028,4 hPa 0,0 l/m 4,0 km/h (1 Bft) S 180 0 min 0,000 mm 0,0 UV-I 0 W/m 2,7 C 3,6 C 4,8 km/h (1 Bft) 98,00 %
05.10.2016 02:58 3,6 C 94 % 1028,4 hPa 0,0 l/m 4,1 km/h (1 Bft) S 185 0 min 0,000 mm 0,0 UV-I 0 W/m 2,7 C 3,6 C 6,4 km/h (2 Bft) 100,00 %
05.10.2016 03:00 3,5 C 95 % 1028,4 hPa 0,0 l/m 3,9 km/h (1 Bft) S 185 0 min 0,000 mm 0,0 UV-I 0 W/m 2,8 C 3,5 C 4,8 km/h (1 Bft) 100,00 %
05.10.2016 03:02 3,5 C 95 % 1028,3 hPa 0,0 l/m 3,6 km/h (1 Bft) S 185 0 min 0,000 mm 0,0 UV-I 0 W/m 2,8 C 3,5 C 4,8 km/h (1 Bft) 100,00 %
05.10.2016 03:04 3,4 C 94 % 1028,3 hPa 0,0 l/m 3,7 km/h (1 Bft) S 185 0 min 0,000 mm 0,0 UV-I 0 W/m 2,5 C 3,4 C 4,8 km/h (1 Bft) 98,00 %
05.10.2016 03:06 3,4 C 95 % 1028,2 hPa 0,0 l/m 4,1 km/h (1 Bft) S 185 0 min 0,000 mm 0,0 UV-I 0 W/m 2,7 C 3,4 C 4,8 km/h (1 Bft) 100,00 %
05.10.2016 03:08 3,4 C 95 % 1028,2 hPa 0,0 l/m 3,8 km/h (1 Bft) S 185 0 min 0,000 mm 0,0 UV-I 0 W/m 2,7 C 3,4 C 4,8 km/h (1 Bft) 97,14 %
05.10.2016 03:10 3,4 C 95 % 1028,3 hPa 0,0 l/m 4,0 km/h (1 Bft) S 185 0 min 0,000 mm 0,0 UV-I 0 W/m 2,7 C 3,4 C 4,8 km/h (1 Bft) 100,00 %
05.10.2016 03:12 3,4 C 95 % 1028,2 hPa 0,0 l/m 4,3 km/h (1 Bft) S-SW 192 0 min 0,000 mm 0,0 UV-I 0 W/m 2,7 C 3,4 C 6,4 km/h (2 Bft) 98,11 %
05.10.2016 03:14 3,4 C 95 % 1028,3 hPa 0,0 l/m 3,9 km/h (1 Bft) S-SW 192 0 min 0,000 mm 0,0 UV-I 0 W/m 2,7 C 3,4 C 4,8 km/h (1 Bft) 100,00 %
05.10.2016 03:16 3,4 C 95 % 1028,2 hPa 0,0 l/m 4,2 km/h (1 Bft) S-SW 197 0 min 0,000 mm 0,0 UV-I 0 W/m 2,7 C 3,4 C 6,4 km/h (2 Bft) 100,00 %
05.10.2016 03:18 3,4 C 95 % 1028,2 hPa 0,0 l/m 5,3 km/h (1 Bft) S-SW 197 0 min 0,000 mm 0,0 UV-I 0 W/m 2,7 C 3,4 C 6,4 km/h (2 Bft) 100,00 %
05.10.2016 03:20 3,4 C 95 % 1028,2 hPa 0,0 l/m 4,9 km/h (1 Bft) S-SW 197 0 min 0,000 mm 0,0 UV-I 0 W/m 2,7 C 3,4 C 6,4 km/h (2 Bft) 100,00 %
05.10.2016 03:22 3,4 C 95 % 1028,2 hPa 0,0 l/m 4,8 km/h (1 Bft) S-SW 197 0 min 0,000 mm 0,0 UV-I 0 W/m 2,7 C 3,4 C 6,4 km/h (2 Bft) 98,00 %
05.10.2016 03:24 3,4 C 95 % 1028,1 hPa 0,0 l/m 4,2 km/h (1 Bft) S 170 0 min 0,000 mm 0,0 UV-I 0 W/m 2,7 C 3,4 C 6,4 km/h (2 Bft) 100,00 %
05.10.2016 03:26 3,4 C 95 % 1028,1 hPa 0,0 l/m 5,1 km/h (1 Bft) S 173 0 min 0,000 mm 0,0 UV-I 0 W/m 2,7 C 3,4 C 8,0 km/h (2 Bft) 100,00 %
05.10.2016 03:28 3,4 C 95 % 1028,1 hPa 0,0 l/m 5,1 km/h (1 Bft) S 179 0 min 0,000 mm 0,0 UV-I 0 W/m 2,7 C 3,4 C 6,4 km/h (2 Bft) 100,00 %
05.10.2016 03:30 3,4 C 95 % 1028,1 hPa 0,0 l/m 3,8 km/h (1 Bft) S 189 0 min 0,000 mm 0,0 UV-I 0 W/m 2,7 C 3,4 C 6,4 km/h (2 Bft) 100,00 %
05.10.2016 03:32 3,4 C 95 % 1028,1 hPa 0,0 l/m 4,1 km/h (1 Bft) S-SW 207 0 min 0,000 mm 0,0 UV-I 0 W/m 2,7 C 3,4 C 6,4 km/h (2 Bft) 97,92 %
05.10.2016 03:34 3,4 C 95 % 1028,1 hPa 0,0 l/m 2,7 km/h (1 Bft) S-SW 207 0 min 0,000 mm 0,0 UV-I 0 W/m 2,7 C 3,4 C 4,8 km/h (1 Bft) 100,00 %
05.10.2016 03:36 3,4 C 95 % 1028,1 hPa 0,0 l/m 2,9 km/h (1 Bft) S-SW 207 0 min 0,000 mm 0,0 UV-I 0 W/m 2,7 C 3,4 C 4,8 km/h (1 Bft) 100,00 %
05.10.2016 03:38 3,4 C 95 % 1028,1 hPa 0,0 l/m 3,9 km/h (1 Bft) S-SW 196 0 min 0,000 mm 0,0 UV-I 0 W/m 2,7 C 3,4 C 6,4 km/h (2 Bft) 100,00 %
05.10.2016 03:40 3,4 C 95 % 1028,0 hPa 0,0 l/m 3,1 km/h (1 Bft) S-SW 196 0 min 0,000 mm 0,0 UV-I 0 W/m 2,7 C 3,4 C 4,8 km/h (1 Bft) 98,00 %
05.10.2016 03:42 3,5 C 96 % 1028,0 hPa 0,0 l/m 3,0 km/h (1 Bft) S-SW 196 0 min 0,000 mm 0,0 UV-I 0 W/m 2,9 C 3,5 C 4,8 km/h (1 Bft) 100,00 %
05.10.2016 03:44 3,5 C 96 % 1028,1 hPa 0,0 l/m 3,7 km/h (1 Bft) S-SW 196 0 min 0,000 mm 0,0 UV-I 0 W/m 2,9 C 3,5 C 4,8 km/h (1 Bft) 100,00 %
05.10.2016 03:46 3,5 C 96 % 1028,0 hPa 0,0 l/m 3,5 km/h (1 Bft) S-SW 196 0 min 0,000 mm 0,0 UV-I 0 W/m 2,9 C 3,5 C 4,8 km/h (1 Bft) 100,00 %
05.10.2016 03:48 3,5 C 96 % 1028,0 hPa 0,0 l/m 3,2 km/h (1 Bft) S-SW 194 0 min 0,000 mm 0,0 UV-I 0 W/m 2,9 C 3,5 C 6,4 km/h (2 Bft) 100,00 %
05.10.2016 03:50 3,5 C 96 % 1027,9 hPa 0,0 l/m 4,0 km/h (1 Bft) S 179 0 min 0,000 mm 0,0 UV-I 0 W/m 2,9 C 3,5 C 6,4 km/h (2 Bft) 93,62 %
05.10.2016 03:52 3,5 C 96 % 1027,9 hPa 0,0 l/m 3,8 km/h (1 Bft) S 186 0 min 0,000 mm 0,0 UV-I 0 W/m 2,9 C 3,5 C 6,4 km/h (2 Bft) 97,14 %
05.10.2016 03:54 3,5 C 96 % 1027,9 hPa 0,0 l/m 3,5 km/h (1 Bft) S 190 0 min 0,000 mm 0,0 UV-I 0 W/m 2,9 C 3,5 C 6,4 km/h (2 Bft) 98,11 %
05.10.2016 03:56 3,5 C 96 % 1027,9 hPa 0,0 l/m 4,1 km/h (1 Bft) S 184 0 min 0,000 mm 0,0 UV-I 0 W/m 2,9 C 3,5 C 6,4 km/h (2 Bft) 96,00 %
05.10.2016 03:58 3,5 C 96 % 1027,8 hPa 0,0 l/m 4,9 km/h (1 Bft) S-SW 194 0 min 0,000 mm 0,0 UV-I 0 W/m 2,9 C 3,5 C 8,0 km/h (2 Bft) 97,56 %
05.10.2016 04:00 3,6 C 96 % 1027,8 hPa 0,0 l/m 5,3 km/h (1 Bft) S-SW 208 0 min 0,000 mm 0,0 UV-I 0 W/m 3,0 C 3,6 C 9,7 km/h (2 Bft) 97,87 %
05.10.2016 04:02 3,6 C 96 % 1027,8 hPa 0,0 l/m 3,4 km/h (1 Bft) S 176 0 min 0,000 mm 0,0 UV-I 0 W/m 3,0 C 3,6 C 6,4 km/h (2 Bft) 96,77 %
05.10.2016 04:04 3,6 C 96 % 1027,8 hPa 0,0 l/m 5,9 km/h (2 Bft) S-SW 192 0 min 0,000 mm 0,0 UV-I 0 W/m 3,0 C 3,6 C 11,3 km/h (2 Bft) 98,00 %
05.10.2016 04:06 3,6 C 96 % 1027,8 hPa 0,0 l/m 6,0 km/h (2 Bft) S-SW 202 0 min 0,000 mm 0,0 UV-I 0 W/m 3,0 C 3,6 C 9,7 km/h (2 Bft) 98,00 %
05.10.2016 04:08 3,6 C 96 % 1027,8 hPa 0,0 l/m 4,7 km/h (1 Bft) S 184 0 min 0,000 mm 0,0 UV-I 0 W/m 3,0 C 3,6 C 6,4 km/h (2 Bft) 97,73 %
05.10.2016 04:10 3,6 C 96 % 1027,7 hPa 0,0 l/m 2,8 km/h (1 Bft) S-SW 194 0 min 0,000 mm 0,0 UV-I 0 W/m 3,0 C 3,6 C 6,4 km/h (2 Bft) 97,44 %
05.10.2016 04:12 3,6 C 96 % 1027,7 hPa 0,0 l/m 3,1 km/h (1 Bft) S-SW 197 0 min 0,000 mm 0,0 UV-I 0 W/m 3,0 C 3,6 C 4,8 km/h (1 Bft) 94,00 %
05.10.2016 04:14 3,6 C 96 % 1027,7 hPa 0,0 l/m 3,4 km/h (1 Bft) S-SW 197 0 min 0,000 mm 0,0 UV-I 0 W/m 3,0 C 3,6 C 4,8 km/h (1 Bft) 95,74 %
05.10.2016 04:16 3,6 C 96 % 1027,7 hPa 0,0 l/m 2,7 km/h (1 Bft) S-SW 197 0 min 0,000 mm 0,0 UV-I 0 W/m 3,0 C 3,6 C 4,8 km/h (1 Bft) 97,87 %
05.10.2016 04:18 3,6 C 96 % 1027,7 hPa 0,0 l/m 3,3 km/h (1 Bft) S-SW 197 0 min 0,000 mm 0,0 UV-I 0 W/m 3,0 C 3,6 C 4,8 km/h (1 Bft) 97,87 %
05.10.2016 04:20 3,6 C 96 % 1027,7 hPa 0,0 l/m 4,8 km/h (1 Bft) S-SW 211 0 min 0,000 mm 0,0 UV-I 0 W/m 3,0 C 3,6 C 6,4 km/h (2 Bft) 95,74 %
05.10.2016 04:22 3,6 C 96 % 1027,7 hPa 0,0 l/m 2,8 km/h (1 Bft) S-SW 209 0 min 0,000 mm 0,0 UV-I 0 W/m 3,0 C 3,6 C 4,8 km/h (1 Bft) 98,11 %
05.10.2016 04:24 3,6 C 96 % 1027,8 hPa 0,0 l/m 3,9 km/h (1 Bft) SW 217 0 min 0,000 mm 0,0 UV-I 0 W/m 3,0 C 3,6 C 4,8 km/h (1 Bft) 95,74 %
05.10.2016 04:26 3,6 C 96 % 1027,7 hPa 0,0 l/m 2,6 km/h (1 Bft) S-SW 207 0 min 0,000 mm 0,0 UV-I 0 W/m 3,0 C 3,6 C 4,8 km/h (1 Bft) 100,00 %
05.10.2016 04:28 3,6 C 96 % 1027,7 hPa 0,0 l/m 1,1 km/h (1 Bft) S-SW 207 0 min 0,000 mm 0,0 UV-I 0 W/m 3,0 C 3,6 C 3,2 km/h (1 Bft) 100,00 %
05.10.2016 04:30 3,6 C 96 % 1027,7 hPa 0,0 l/m 1,5 km/h (1 Bft) S-SW 207 0 min 0,000 mm 0,0 UV-I 0 W/m 3,0 C 3,6 C 3,2 km/h (1 Bft) 97,87 %
05.10.2016 04:32 3,6 C 96 % 1027,7 hPa 0,0 l/m 0,7 km/h (0 Bft) S-SW 207 0 min 0,000 mm 0,0 UV-I 0 W/m 3,0 C 3,6 C 1,6 km/h (1 Bft) 97,87 %
05.10.2016 04:34 3,6 C 96 % 1027,7 hPa 0,0 l/m 1,0 km/h (0 Bft) S-SW 207 0 min 0,000 mm 0,0 UV-I 0 W/m 3,0 C 3,6 C 3,2 km/h (1 Bft) 100,00 %
05.10.2016 04:36 3,6 C 96 % 1027,7 hPa 0,0 l/m 0,7 km/h (0 Bft) S-SW 207 0 min 0,000 mm 0,0 UV-I 0 W/m 3,0 C 3,6 C 3,2 km/h (1 Bft) 100,00 %
05.10.2016 04:38 3,6 C 96 % 1027,7 hPa 0,0 l/m 1,6 km/h (1 Bft) S-SW 207 0 min 0,000 mm 0,0 UV-I 0 W/m 3,0 C 3,6 C 3,2 km/h (1 Bft) 97,37 %
05.10.2016 04:40 3,6 C 96 % 1027,7 hPa 0,0 l/m 1,0 km/h (0 Bft) S-SW 207 0 min 0,000 mm 0,0 UV-I 0 W/m 3,0 C 3,6 C 3,2 km/h (1 Bft) 100,00 %
05.10.2016 04:42 3,6 C 96 % 1027,7 hPa 0,0 l/m 1,7 km/h (1 Bft) S-SW 207 0 min 0,000 mm 0,0 UV-I 0 W/m 3,0 C 3,6 C 3,2 km/h (1 Bft) 100,00 %
05.10.2016 04:44 3,6 C 96 % 1027,7 hPa 0,0 l/m 0,8 km/h (0 Bft) S-SW 207 0 min 0,000 mm 0,0 UV-I 0 W/m 3,0 C 3,6 C 3,2 km/h (1 Bft) 100,00 %
05.10.2016 04:46 3,6 C 96 % 1027,7 hPa 0,0 l/m 0,6 km/h (0 Bft) S-SW 207 0 min 0,000 mm 0,0 UV-I 0 W/m 3,0 C 3,6 C 1,6 km/h (1 Bft) 100,00 %
05.10.2016 04:48 3,6 C 96 % 1027,6 hPa 0,0 l/m 3,2 km/h (1 Bft) S 191 0 min 0,000 mm 0,0 UV-I 0 W/m 3,0 C 3,6 C 4,8 km/h (1 Bft) 100,00 %
05.10.2016 04:50 3,6 C 96 % 1027,6 hPa 0,0 l/m 4,4 km/h (1 Bft) S-SW 193 0 min 0,000 mm 0,0 UV-I 0 W/m 3,0 C 3,6 C 6,4 km/h (2 Bft) 100,00 %
05.10.2016 04:52 3,6 C 96 % 1027,6 hPa 0,0 l/m 3,9 km/h (1 Bft) S-SW 194 0 min 0,000 mm 0,0 UV-I 0 W/m 3,0 C 3,6 C 6,4 km/h (2 Bft) 100,00 %
05.10.2016 04:54 3,6 C 96 % 1027,6 hPa 0,0 l/m 4,8 km/h (1 Bft) SW 218 0 min 0,000 mm 0,0 UV-I 0 W/m 3,0 C 3,6 C 6,4 km/h (2 Bft) 100,00 %
05.10.2016 04:56 3,6 C 96 % 1027,6 hPa 0,0 l/m 2,5 km/h (1 Bft) SW 218 0 min 0,000 mm 0,0 UV-I 0 W/m 3,0 C 3,6 C 4,8 km/h (1 Bft) 100,00 %
05.10.2016 04:58 3,6 C 96 % 1027,6 hPa 0,0 l/m 1,6 km/h (1 Bft) SW 218 0 min 0,000 mm 0,0 UV-I 0 W/m 3,0 C 3,6 C 3,2 km/h (1 Bft) 100,00 %
05.10.2016 05:00 3,6 C 96 % 1027,6 hPa 0,0 l/m 2,3 km/h (1 Bft) SW 218 0 min 0,000 mm 0,0 UV-I 0 W/m 3,0 C 3,6 C 3,2 km/h (1 Bft) 100,00 %
05.10.2016 05:02 3,6 C 96 % 1027,6 hPa 0,0 l/m 2,3 km/h (1 Bft) SW 218 0 min 0,000 mm 0,0 UV-I 0 W/m 3,0 C 3,6 C 4,8 km/h (1 Bft) 97,87 %
05.10.2016 05:04 3,6 C 96 % 1027,6 hPa 0,0 l/m 2,6 km/h (1 Bft) SW 218 0 min 0,000 mm 0,0 UV-I 0 W/m 3,0 C 3,6 C 4,8 km/h (1 Bft) 100,00 %
05.10.2016 05:06 3,6 C 96 % 1027,6 hPa 0,0 l/m 2,8 km/h (1 Bft) SW 218 0 min 0,000 mm 0,0 UV-I 0 W/m 3,0 C 3,6 C 4,8 km/h (1 Bft) 100,00 %
05.10.2016 05:08 3,6 C 96 % 1027,6 hPa 0,0 l/m 1,1 km/h (1 Bft) SW 218 0 min 0,000 mm 0,0 UV-I 0 W/m 3,0 C 3,6 C 3,2 km/h (1 Bft) 100,00 %
05.10.2016 05:10 3,6 C 96 % 1027,6 hPa 0,0 l/m 1,2 km/h (1 Bft) SW 218 0 min 0,000 mm 0,0 UV-I 0 W/m 3,0 C 3,6 C 3,2 km/h (1 Bft) 100,00 %
05.10.2016 05:12 3,4 C 96 % 1027,7 hPa 0,0 l/m 0,0 km/h (0 Bft) SW 218 0 min 0,000 mm 0,0 UV-I 0 W/m 2,8 C 3,4 C 1,6 km/h (1 Bft) 100,00 %
05.10.2016 05:14 3,4 C 96 % 1027,6 hPa 0,0 l/m 1,9 km/h (1 Bft) S 180 0 min 0,000 mm 0,0 UV-I 0 W/m 2,8 C 3,4 C 6,4 km/h (2 Bft) 100,00 %
05.10.2016 05:16 3,4 C 96 % 1027,6 hPa 0,0 l/m 4,5 km/h (1 Bft) S 179 0 min 0,000 mm 0,0 UV-I 0 W/m 2,8 C 3,4 C 6,4 km/h (2 Bft) 100,00 %
05.10.2016 05:18 3,4 C 96 % 1027,6 hPa 0,0 l/m 3,2 km/h (1 Bft) S 186 0 min 0,000 mm 0,0 UV-I 0 W/m 2,8 C 3,4 C 4,8 km/h (1 Bft) 100,00 %
05.10.2016 05:20 3,4 C 96 % 1027,6 hPa 0,0 l/m 2,3 km/h (1 Bft) S 186 0 min 0,000 mm 0,0 UV-I 0 W/m 2,8 C 3,4 C 4,8 km/h (1 Bft) 100,00 %
05.10.2016 05:22 3,4 C 96 % 1027,7 hPa 0,0 l/m 1,8 km/h (1 Bft) S 191 0 min 0,000 mm 0,0 UV-I 0 W/m 2,8 C 3,4 C 4,8 km/h (1 Bft) 100,00 %
05.10.2016 05:24 3,4 C 96 % 1027,6 hPa 0,0 l/m 0,5 km/h (0 Bft) S 191 0 min 0,000 mm 0,0 UV-I 0 W/m 2,8 C 3,4 C 3,2 km/h (1 Bft) 100,00 %
05.10.2016 05:26 3,4 C 96 % 1027,6 hPa 0,0 l/m 1,5 km/h (1 Bft) S 191 0 min 0,000 mm 0,0 UV-I 0 W/m 2,8 C 3,4 C 3,2 km/h (1 Bft) 97,87 %
05.10.2016 05:28 3,4 C 96 % 1027,6 hPa 0,0 l/m 1,6 km/h (1 Bft) S 191 0 min 0,000 mm 0,0 UV-I 0 W/m 2,8 C 3,4 C 3,2 km/h (1 Bft) 100,00 %
05.10.2016 05:30 3,5 C 96 % 1027,6 hPa 0,0 l/m 0,6 km/h (0 Bft) S 191 0 min 0,000 mm 0,0 UV-I 0 W/m 2,9 C 3,5 C 3,2 km/h (1 Bft) 100,00 %
05.10.2016 05:32 3,5 C 96 % 1027,6 hPa 0,0 l/m 1,4 km/h (1 Bft) S 191 0 min 0,000 mm 0,0 UV-I 0 W/m 2,9 C 3,5 C 3,2 km/h (1 Bft) 98,00 %
05.10.2016 05:34 3,5 C 96 % 1027,6 hPa 0,0 l/m 0,9 km/h (0 Bft) S 191 0 min 0,000 mm 0,0 UV-I 0 W/m 2,9 C 3,5 C 1,6 km/h (1 Bft) 100,00 %
05.10.2016 05:36 3,5 C 96 % 1027,6 hPa 0,0 l/m 0,5 km/h (0 Bft) S 191 0 min 0,000 mm 0,0 UV-I 0 W/m 2,9 C 3,5 C 1,6 km/h (1 Bft) 100,00 %
05.10.2016 05:38 3,5 C 96 % 1027,6 hPa 0,0 l/m 0,0 km/h (0 Bft) S 191 0 min 0,000 mm 0,0 UV-I 0 W/m 2,9 C 3,5 C 0,0 km/h (0 Bft) 97,56 %
05.10.2016 05:40 3,5 C 96 % 1027,6 hPa 0,0 l/m 0,2 km/h (0 Bft) S 191 0 min 0,000 mm 0,0 UV-I 0 W/m 2,9 C 3,5 C 1,6 km/h (1 Bft) 100,00 %
05.10.2016 05:42 3,6 C 96 % 1027,7 hPa 0,0 l/m 2,6 km/h (1 Bft) S-SW 207 0 min 0,000 mm 0,0 UV-I 0 W/m 3,0 C 3,6 C 4,8 km/h (1 Bft) 100,00 %
05.10.2016 05:44 3,6 C 96 % 1027,6 hPa 0,0 l/m 0,8 km/h (0 Bft) S-SW 207 0 min 0,000 mm 0,0 UV-I 0 W/m 3,0 C 3,6 C 3,2 km/h (1 Bft) 100,00 %
05.10.2016 05:46 3,6 C 96 % 1027,7 hPa 0,0 l/m 1,8 km/h (1 Bft) W 281 0 min 0,000 mm 0,0 UV-I 0 W/m 3,0 C 3,6 C 4,8 km/h (1 Bft) 97,37 %
05.10.2016 05:48 3,7 C 96 % 1027,7 hPa 0,0 l/m 2,3 km/h (1 Bft) W 281 0 min 0,000 mm 0,0 UV-I 0 W/m 3,1 C 3,7 C 4,8 km/h (1 Bft) 100,00 %
05.10.2016 05:50 3,7 C 96 % 1027,7 hPa 0,0 l/m 2,7 km/h (1 Bft) W 281 0 min 0,000 mm 0,0 UV-I 0 W/m 3,1 C 3,7 C 4,8 km/h (1 Bft) 100,00 %
05.10.2016 05:52 3,7 C 96 % 1027,7 hPa 0,0 l/m 2,0 km/h (1 Bft) W 281 0 min 0,000 mm 0,0 UV-I 0 W/m 3,1 C 3,7 C 4,8 km/h (1 Bft) 100,00 %
05.10.2016 05:54 3,8 C 96 % 1027,7 hPa 0,0 l/m 0,0 km/h (0 Bft) W 281 0 min 0,000 mm 0,0 UV-I 0 W/m 3,2 C 3,8 C 0,0 km/h (0 Bft) 100,00 %
05.10.2016 05:56 3,8 C 96 % 1027,7 hPa 0,0 l/m 0,6 km/h (0 Bft) W 281 0 min 0,000 mm 0,0 UV-I 0 W/m 3,2 C 3,8 C 3,2 km/h (1 Bft) 96,00 %
05.10.2016 05:58 3,8 C 96 % 1027,6 hPa 0,0 l/m 0,3 km/h (0 Bft) W 281 0 min 0,000 mm 0,0 UV-I 0 W/m 3,2 C 3,8 C 3,2 km/h (1 Bft) 96,00 %
05.10.2016 06:00 3,8 C 96 % 1027,7 hPa 0,0 l/m 2,2 km/h (1 Bft) W 271 0 min 0,000 mm 0,0 UV-I 0 W/m 3,2 C 3,8 C 3,2 km/h (1 Bft) 97,87 %
05.10.2016 06:02 3,8 C 96 % 1027,6 hPa 0,0 l/m 2,7 km/h (1 Bft) W 275 0 min 0,000 mm 0,0 UV-I 0 W/m 3,2 C 3,8 C 6,4 km/h (2 Bft) 97,87 %
05.10.2016 06:04 3,9 C 96 % 1027,6 hPa 0,0 l/m 1,5 km/h (1 Bft) W 274 0 min 0,000 mm 0,0 UV-I 0 W/m 3,3 C 3,9 C 3,2 km/h (1 Bft) 95,74 %
05.10.2016 06:06 3,9 C 96 % 1027,6 hPa 0,0 l/m 2,5 km/h (1 Bft) W 273 0 min 0,000 mm 0,0 UV-I 0 W/m 3,3 C 3,9 C 4,8 km/h (1 Bft) 97,44 %
05.10.2016 06:08 3,9 C 96 % 1027,6 hPa 0,0 l/m 2,4 km/h (1 Bft) W-NW 288 0 min 0,000 mm 0,0 UV-I 0 W/m 3,3 C 3,9 C 6,4 km/h (2 Bft) 98,11 %
05.10.2016 06:10 3,9 C 96 % 1027,6 hPa 0,0 l/m 2,2 km/h (1 Bft) W-NW 288 0 min 0,000 mm 0,0 UV-I 0 W/m 3,3 C 3,9 C 3,2 km/h (1 Bft) 97,56 %
05.10.2016 06:12 3,9 C 96 % 1027,6 hPa 0,0 l/m 2,4 km/h (1 Bft) W-SW 251 0 min 0,000 mm 0,0 UV-I 0 W/m 3,3 C 3,9 C 4,8 km/h (1 Bft) 98,00 %
05.10.2016 06:14 4,0 C 96 % 1027,5 hPa 0,0 l/m 2,1 km/h (1 Bft) W-SW 251 0 min 0,000 mm 0,0 UV-I 0 W/m 3,4 C 4,0 C 3,2 km/h (1 Bft) 96,00 %
05.10.2016 06:16 4,0 C 96 % 1027,5 hPa 0,0 l/m 2,7 km/h (1 Bft) W 265 0 min 0,000 mm 0,0 UV-I 0 W/m 3,4 C 4,0 C 4,8 km/h (1 Bft) 96,00 %
05.10.2016 06:18 4,1 C 96 % 1027,5 hPa 0,0 l/m 3,6 km/h (1 Bft) W 261 0 min 0,000 mm 0,0 UV-I 0 W/m 3,5 C 4,1 C 4,8 km/h (1 Bft) 97,14 %
05.10.2016 06:20 4,1 C 97 % 1027,5 hPa 0,0 l/m 2,9 km/h (1 Bft) W 267 0 min 0,000 mm 0,0 UV-I 0 W/m 3,7 C 4,1 C 4,8 km/h (1 Bft) 97,87 %
05.10.2016 06:22 4,1 C 97 % 1027,5 hPa 0,0 l/m 2,1 km/h (1 Bft) W 276 0 min 0,000 mm 0,0 UV-I 0 W/m 3,7 C 4,1 C 4,8 km/h (1 Bft) 98,21 %
05.10.2016 06:24 4,1 C 97 % 1027,5 hPa 0,0 l/m 1,8 km/h (1 Bft) W 276 0 min 0,000 mm 0,0 UV-I 0 W/m 3,7 C 4,1 C 4,8 km/h (1 Bft) 97,37 %
05.10.2016 06:26 4,1 C 97 % 1027,5 hPa 0,0 l/m 2,2 km/h (1 Bft) W 276 0 min 0,000 mm 0,0 UV-I 0 W/m 3,7 C 4,1 C 4,8 km/h (1 Bft) 98,11 %
05.10.2016 06:28 4,1 C 97 % 1027,5 hPa 0,0 l/m 1,4 km/h (1 Bft) W 276 0 min 0,000 mm 0,0 UV-I 0 W/m 3,7 C 4,1 C 3,2 km/h (1 Bft) 97,87 %
05.10.2016 06:30 4,1 C 97 % 1027,4 hPa 0,0 l/m 0,9 km/h (0 Bft) W 276 0 min 0,000 mm 0,0 UV-I 0 W/m 3,7 C 4,1 C 3,2 km/h (1 Bft) 96,00 %
05.10.2016 06:32 4,2 C 97 % 1027,4 hPa 0,0 l/m 0,3 km/h (0 Bft) W 276 0 min 0,000 mm 0,0 UV-I 0 W/m 3,8 C 4,2 C 1,6 km/h (1 Bft) 97,87 %
05.10.2016 06:34 4,2 C 96 % 1027,4 hPa 0,0 l/m 1,0 km/h (0 Bft) W 276 0 min 0,000 mm 0,0 UV-I 0 W/m 3,6 C 4,2 C 3,2 km/h (1 Bft) 100,00 %
05.10.2016 06:36 4,2 C 96 % 1027,4 hPa 0,0 l/m 0,4 km/h (0 Bft) W 276 0 min 0,000 mm 0,0 UV-I 0 W/m 3,6 C 4,2 C 1,6 km/h (1 Bft) 96,00 %
05.10.2016 06:38 4,2 C 96 % 1027,4 hPa 0,0 l/m 0,8 km/h (0 Bft) W 276 0 min 0,000 mm 0,0 UV-I 0 W/m 3,6 C 4,2 C 1,6 km/h (1 Bft) 100,00 %
05.10.2016 06:40 4,2 C 96 % 1027,4 hPa 0,0 l/m 0,4 km/h (0 Bft) W 276 0 min 0,000 mm 0,0 UV-I 0 W/m 3,6 C 4,2 C 3,2 km/h (1 Bft) 100,00 %
05.10.2016 06:42 4,2 C 96 % 1027,4 hPa 0,0 l/m 1,4 km/h (1 Bft) W 279 0 min 0,000 mm 0,0 UV-I 0 W/m 3,6 C 4,2 C 3,2 km/h (1 Bft) 100,00 %
05.10.2016 06:44 4,2 C 96 % 1027,4 hPa 0,0 l/m 3,3 km/h (1 Bft) N 355 0 min 0,000 mm 0,0 UV-I 0 W/m 3,6 C 4,2 C 4,8 km/h (1 Bft) 100,00 %
05.10.2016 06:46 4,2 C 96 % 1027,3 hPa 0,0 l/m 2,7 km/h (1 Bft) NW 325 0 min 0,000 mm 0,0 UV-I 0 W/m 3,6 C 4,2 C 4,8 km/h (1 Bft) 100,00 %
05.10.2016 06:48 4,2 C 96 % 1027,4 hPa 0,0 l/m 2,8 km/h (1 Bft) N-NW 346 0 min 0,000 mm 0,0 UV-I 0 W/m 3,6 C 4,2 C 4,8 km/h (1 Bft) 100,00 %
05.10.2016 06:50 4,3 C 96 % 1027,4 hPa 0,0 l/m 2,6 km/h (1 Bft) NW 319 0 min 0,000 mm 0,0 UV-I 0 W/m 3,7 C 4,3 C 8,0 km/h (2 Bft) 97,87 %
05.10.2016 06:52 4,3 C 96 % 1027,4 hPa 0,0 l/m 2,6 km/h (1 Bft) W-NW 301 0 min 0,000 mm 0,0 UV-I 0 W/m 3,7 C 4,3 C 4,8 km/h (1 Bft) 94,74 %
05.10.2016 06:54 4,3 C 96 % 1027,3 hPa 0,0 l/m 1,4 km/h (1 Bft) W-NW 292 0 min 0,000 mm 0,0 UV-I 0 W/m 3,7 C 4,3 C 4,8 km/h (1 Bft) 100,00 %
05.10.2016 06:56 4,3 C 96 % 1027,3 hPa 0,0 l/m 3,0 km/h (1 Bft) W-NW 282 0 min 0,000 mm 0,0 UV-I 0 W/m 3,7 C 4,3 C 4,8 km/h (1 Bft) 100,00 %
05.10.2016 06:58 4,3 C 96 % 1027,3 hPa 0,0 l/m 3,9 km/h (1 Bft) W 270 0 min 0,000 mm 0,0 UV-I 0 W/m 3,7 C 4,3 C 4,8 km/h (1 Bft) 100,00 %
05.10.2016 07:00 4,4 C 96 % 1027,3 hPa 0,0 l/m 3,2 km/h (1 Bft) W 269 0 min 0,000 mm 0,0 UV-I 0 W/m 3,8 C 4,4 C 4,8 km/h (1 Bft) 100,00 %
05.10.2016 07:02 4,4 C 96 % 1027,3 hPa 0,0 l/m 1,5 km/h (1 Bft) W 269 0 min 0,000 mm 0,0 UV-I 0 W/m 3,8 C 4,4 C 3,2 km/h (1 Bft) 100,00 %
05.10.2016 07:04 4,4 C 96 % 1027,3 hPa 0,0 l/m 0,0 km/h (0 Bft) W 269 0 min 0,000 mm 0,0 UV-I 0 W/m 3,8 C 4,4 C 0,0 km/h (0 Bft) 97,87 %
05.10.2016 07:06 4,4 C 96 % 1027,3 hPa 0,0 l/m 0,0 km/h (0 Bft) W 269 0 min 0,000 mm 0,0 UV-I 0 W/m 3,8 C 4,4 C 0,0 km/h (0 Bft) 100,00 %
05.10.2016 07:08 4,3 C 96 % 1027,3 hPa 0,0 l/m 0,1 km/h (0 Bft) W 269 0 min 0,000 mm 0,0 UV-I 2 W/m 3,7 C 4,3 C 1,6 km/h (1 Bft) 100,00 %
05.10.2016 07:10 4,4 C 96 % 1027,4 hPa 0,0 l/m 0,1 km/h (0 Bft) W 269 0 min 0,000 mm 0,0 UV-I 5 W/m 3,8 C 4,4 C 1,6 km/h (1 Bft) 98,00 %
05.10.2016 07:12 4,3 C 96 % 1027,3 hPa 0,0 l/m 0,2 km/h (0 Bft) W 269 0 min 0,000 mm 0,0 UV-I 6 W/m 3,7 C 4,3 C 1,6 km/h (1 Bft) 100,00 %
05.10.2016 07:14 4,3 C 96 % 1027,4 hPa 0,0 l/m 0,7 km/h (0 Bft) W 269 0 min 0,000 mm 0,0 UV-I 7 W/m 3,7 C 4,3 C 1,6 km/h (1 Bft) 97,87 %
05.10.2016 07:16 4,3 C 96 % 1027,3 hPa 0,0 l/m 0,1 km/h (0 Bft) W 269 0 min 0,000 mm 0,0 UV-I 8 W/m 3,7 C 4,3 C 1,6 km/h (1 Bft) 97,14 %
05.10.2016 07:18 4,3 C 96 % 1027,4 hPa 0,0 l/m 0,3 km/h (0 Bft) W 269 0 min 0,000 mm 0,0 UV-I 10 W/m 3,7 C 4,3 C 1,6 km/h (1 Bft) 94,12 %
05.10.2016 07:20 4,3 C 96 % 1027,4 hPa 0,0 l/m 0,8 km/h (0 Bft) W 269 2 min 0,000 mm 0,0 UV-I 12 W/m 3,7 C 4,3 C 3,2 km/h (1 Bft) 100,00 %
05.10.2016 07:22 4,3 C 96 % 1027,3 hPa 0,0 l/m 0,6 km/h (0 Bft) W 269 2 min 0,000 mm 0,0 UV-I 13 W/m 3,7 C 4,3 C 1,6 km/h (1 Bft) 100,00 %
05.10.2016 07:24 4,3 C 96 % 1027,3 hPa 0,0 l/m 1,9 km/h (1 Bft) NW 317 0 min 0,000 mm 0,0 UV-I 14 W/m 3,7 C 4,3 C 4,8 km/h (1 Bft) 96,00 %
05.10.2016 07:26 4,3 C 96 % 1027,3 hPa 0,0 l/m 1,0 km/h (0 Bft) NW 317 0 min 0,000 mm 0,0 UV-I 15 W/m 3,7 C 4,3 C 1,6 km/h (1 Bft) 97,22 %
05.10.2016 07:28 4,2 C 96 % 1027,3 hPa 0,0 l/m 1,5 km/h (1 Bft) NW 323 0 min 0,000 mm 0,0 UV-I 16 W/m 3,6 C 4,2 C 3,2 km/h (1 Bft) 98,00 %
05.10.2016 07:30 4,2 C 96 % 1027,3 hPa 0,0 l/m 1,2 km/h (1 Bft) NW 304 0 min 0,000 mm 0,0 UV-I 16 W/m 3,6 C 4,2 C 4,8 km/h (1 Bft) 98,11 %
05.10.2016 07:32 4,2 C 96 % 1027,3 hPa 0,0 l/m 2,0 km/h (1 Bft) NW 311 0 min 0,000 mm 0,0 UV-I 16 W/m 3,6 C 4,2 C 4,8 km/h (1 Bft) 100,00 %
05.10.2016 07:34 4,2 C 95 % 1027,3 hPa 0,0 l/m 0,7 km/h (0 Bft) NW 311 0 min 0,000 mm 0,0 UV-I 16 W/m 3,5 C 4,2 C 3,2 km/h (1 Bft) 100,00 %
05.10.2016 07:36 4,2 C 95 % 1027,3 hPa 0,0 l/m 2,4 km/h (1 Bft) N-NW 335 0 min 0,000 mm 0,0 UV-I 18 W/m 3,5 C 4,2 C 4,8 km/h (1 Bft) 97,87 %
05.10.2016 07:38 4,2 C 95 % 1027,3 hPa 0,0 l/m 1,6 km/h (1 Bft) N-NW 329 0 min 0,000 mm 0,0 UV-I 18 W/m 3,5 C 4,2 C 3,2 km/h (1 Bft) 100,00 %
05.10.2016 07:40 4,2 C 95 % 1027,2 hPa 0,0 l/m 2,9 km/h (1 Bft) N-NW 331 0 min 0,000 mm 0,0 UV-I 19 W/m 3,5 C 4,2 C 8,0 km/h (2 Bft) 100,00 %
05.10.2016 07:42 4,2 C 95 % 1027,2 hPa 0,0 l/m 2,8 km/h (1 Bft) N-NW 327 0 min 0,000 mm 0,0 UV-I 20 W/m 3,5 C 4,2 C 8,0 km/h (2 Bft) 100,00 %
05.10.2016 07:44 4,2 C 95 % 1027,2 hPa 0,0 l/m 1,7 km/h (1 Bft) N-NW 332 0 min 0,000 mm 0,0 UV-I 26 W/m 3,5 C 4,2 C 6,4 km/h (2 Bft) 96,00 %
05.10.2016 07:46 4,2 C 95 % 1027,2 hPa 0,0 l/m 2,0 km/h (1 Bft) NW 315 2 min 0,000 mm 0,0 UV-I 55 W/m 3,5 C 4,2 C 3,2 km/h (1 Bft) 97,87 %
05.10.2016 07:48 4,3 C 95 % 1027,2 hPa 0,0 l/m 3,1 km/h (1 Bft) NW 313 2 min 0,000 mm 0,0 UV-I 82 W/m 3,6 C 4,3 C 11,3 km/h (2 Bft) 100,00 %
05.10.2016 07:50 4,3 C 95 % 1027,2 hPa 0,0 l/m 2,0 km/h (1 Bft) NW 319 2 min 0,000 mm 0,0 UV-I 90 W/m 3,6 C 4,3 C 6,4 km/h (2 Bft) 100,00 %
05.10.2016 07:52 4,3 C 94 % 1027,2 hPa 0,0 l/m 1,1 km/h (1 Bft) NW 314 2 min 0,000 mm 0,0 UV-I 97 W/m 3,4 C 4,3 C 4,8 km/h (1 Bft) 100,00 %
05.10.2016 07:54 4,3 C 94 % 1027,2 hPa 0,0 l/m 1,5 km/h (1 Bft) NW 314 2 min 0,000 mm 0,0 UV-I 103 W/m 3,4 C 4,3 C 4,8 km/h (1 Bft) 100,00 %
05.10.2016 07:56 4,4 C 94 % 1027,2 hPa 0,0 l/m 0,8 km/h (0 Bft) NW 314 2 min 0,000 mm 0,0 UV-I 109 W/m 3,5 C 4,4 C 3,2 km/h (1 Bft) 95,74 %
05.10.2016 07:58 4,4 C 94 % 1027,3 hPa 0,0 l/m 0,4 km/h (0 Bft) NW 314 2 min 0,000 mm 0,0 UV-I 114 W/m 3,5 C 4,4 C 1,6 km/h (1 Bft) 97,87 %
05.10.2016 08:00 4,4 C 94 % 1027,3 hPa 0,0 l/m 0,0 km/h (0 Bft) NW 314 2 min 0,025 mm 0,0 UV-I 119 W/m 3,5 C 4,4 C 0,0 km/h (0 Bft) 96,00 %
05.10.2016 08:02 4,5 C 95 % 1027,3 hPa 0,0 l/m 0,1 km/h (0 Bft) NW 314 2 min 0,000 mm 0,0 UV-I 122 W/m 3,8 C 4,5 C 1,6 km/h (1 Bft) 97,87 %
05.10.2016 08:04 4,6 C 95 % 1027,3 hPa 0,0 l/m 0,6 km/h (0 Bft) NW 313 2 min 0,000 mm 0,0 UV-I 127 W/m 3,9 C 4,6 C 3,2 km/h (1 Bft) 97,62 %
05.10.2016 08:06 4,6 C 94 % 1027,3 hPa 0,0 l/m 0,0 km/h (0 Bft) NW 313 2 min 0,000 mm 0,0 UV-I 131 W/m 3,7 C 4,6 C 0,0 km/h (0 Bft) 96,00 %
05.10.2016 08:08 4,6 C 94 % 1027,4 hPa 0,0 l/m 0,0 km/h (0 Bft) NW 313 2 min 0,000 mm 0,0 UV-I 136 W/m 3,7 C 4,6 C 0,0 km/h (0 Bft) 97,87 %
05.10.2016 08:10 4,7 C 95 % 1027,3 hPa 0,0 l/m 0,2 km/h (0 Bft) NW 313 2 min 0,000 mm 0,0 UV-I 141 W/m 4,0 C 4,7 C 1,6 km/h (1 Bft) 97,87 %
05.10.2016 08:12 4,8 C 95 % 1027,4 hPa 0,0 l/m 0,4 km/h (0 Bft) NW 313 2 min 0,000 mm 0,0 UV-I 146 W/m 4,1 C 4,8 C 1,6 km/h (1 Bft) 97,87 %
05.10.2016 08:14 4,9 C 95 % 1027,4 hPa 0,0 l/m 0,3 km/h (0 Bft) NW 313 2 min 0,000 mm 0,0 UV-I 155 W/m 4,2 C 4,9 C 1,6 km/h (1 Bft) 97,87 %
05.10.2016 08:16 5,0 C 95 % 1027,4 hPa 0,0 l/m 0,3 km/h (0 Bft) NW 313 2 min 0,000 mm 0,0 UV-I 170 W/m 4,3 C 5,0 C 1,6 km/h (1 Bft) 96,00 %
05.10.2016 08:18 5,1 C 95 % 1027,3 hPa 0,0 l/m 0,7 km/h (0 Bft) NW 313 2 min 0,000 mm 0,0 UV-I 175 W/m 4,4 C 5,1 C 3,2 km/h (1 Bft) 97,37 %
05.10.2016 08:20 5,2 C 94 % 1027,4 hPa 0,0 l/m 1,8 km/h (1 Bft) NW 322 2 min 0,000 mm 0,0 UV-I 176 W/m 4,3 C 5,2 C 6,4 km/h (2 Bft) 98,11 %
05.10.2016 08:22 5,3 C 94 % 1027,4 hPa 0,0 l/m 4,1 km/h (1 Bft) N-NW 327 2 min 0,000 mm 0,0 UV-I 178 W/m 4,4 C 5,3 C 8,0 km/h (2 Bft) 100,00 %
05.10.2016 08:24 5,4 C 93 % 1027,4 hPa 0,0 l/m 2,9 km/h (1 Bft) N-NW 338 2 min 0,000 mm 0,0 UV-I 179 W/m 4,4 C 5,4 C 8,0 km/h (2 Bft) 98,21 %
05.10.2016 08:26 5,4 C 92 % 1027,4 hPa 0,0 l/m 2,5 km/h (1 Bft) N-NW 335 2 min 0,000 mm 0,0 UV-I 179 W/m 4,2 C 5,4 C 6,4 km/h (2 Bft) 97,87 %
05.10.2016 08:28 5,5 C 90 % 1027,3 hPa 0,0 l/m 1,8 km/h (1 Bft) N 360 2 min 0,000 mm 0,0 UV-I 182 W/m 4,0 C 5,5 C 4,8 km/h (1 Bft) 98,00 %
05.10.2016 08:30 5,6 C 89 % 1027,4 hPa 0,0 l/m 4,0 km/h (1 Bft) N 355 2 min 0,000 mm 0,0 UV-I 184 W/m 3,9 C 5,6 C 9,7 km/h (2 Bft) 98,00 %
05.10.2016 08:32 5,7 C 88 % 1027,3 hPa 0,0 l/m 3,6 km/h (1 Bft) N 355 2 min 0,000 mm 0,0 UV-I 165 W/m 3,9 C 5,7 C 6,4 km/h (2 Bft) 100,00 %
05.10.2016 08:34 5,8 C 87 % 1027,4 hPa 0,0 l/m 5,0 km/h (1 Bft) N-NW 340 2 min 0,000 mm 0,0 UV-I 186 W/m 3,8 C 5,8 C 12,9 km/h (3 Bft) 100,00 %
05.10.2016 08:36 5,8 C 87 % 1027,4 hPa 0,0 l/m 5,2 km/h (1 Bft) N-NW 348 2 min 0,000 mm 0,0 UV-I 198 W/m 3,8 C 5,8 C 8,0 km/h (2 Bft) 100,00 %
05.10.2016 08:38 5,9 C 86 % 1027,4 hPa 0,0 l/m 3,9 km/h (1 Bft) N-NW 332 2 min 0,000 mm 0,0 UV-I 204 W/m 3,7 C 5,9 C 6,4 km/h (2 Bft) 100,00 %
05.10.2016 08:40 5,9 C 85 % 1027,4 hPa 0,0 l/m 4,3 km/h (1 Bft) W-NW 290 2 min 0,000 mm 0,0 UV-I 163 W/m 3,6 C 5,9 C 8,0 km/h (2 Bft) 97,22 %
05.10.2016 08:42 6,0 C 85 % 1027,4 hPa 0,0 l/m 3,1 km/h (1 Bft) NW 321 2 min 0,000 mm 0,0 UV-I 177 W/m 3,7 C 6,0 C 6,4 km/h (2 Bft) 100,00 %
05.10.2016 08:44 6,0 C 84 % 1027,4 hPa 0,0 l/m 2,7 km/h (1 Bft) NW 320 2 min 0,000 mm 0,0 UV-I 175 W/m 3,5 C 6,0 C 8,0 km/h (2 Bft) 98,08 %
05.10.2016 08:46 6,1 C 83 % 1027,4 hPa 0,0 l/m 6,3 km/h (2 Bft) NW 323 2 min 0,000 mm 0,0 UV-I 168 W/m 3,4 C 6,1 C 12,9 km/h (3 Bft) 100,00 %
05.10.2016 08:48 6,1 C 83 % 1027,4 hPa 0,0 l/m 4,9 km/h (1 Bft) N-NW 331 2 min 0,000 mm 0,0 UV-I 171 W/m 3,4 C 6,1 C 9,7 km/h (2 Bft) 100,00 %
05.10.2016 08:50 6,1 C 82 % 1027,4 hPa 0,0 l/m 5,9 km/h (2 Bft) N-NW 328 2 min 0,000 mm 0,0 UV-I 234 W/m 3,3 C 6,1 C 14,5 km/h (3 Bft) 100,00 %
05.10.2016 08:52 6,2 C 83 % 1027,3 hPa 0,0 l/m 2,5 km/h (1 Bft) N-NW 335 2 min 0,000 mm 0,0 UV-I 238 W/m 3,5 C 6,2 C 6,4 km/h (2 Bft) 100,00 %
05.10.2016 08:54 6,2 C 83 % 1027,3 hPa 0,0 l/m 2,1 km/h (1 Bft) N-NW 348 2 min 0,000 mm 0,0 UV-I 241 W/m 3,5 C 6,2 C 4,8 km/h (1 Bft) 100,00 %
05.10.2016 08:56 6,3 C 83 % 1027,3 hPa 0,0 l/m 3,4 km/h (1 Bft) NW 318 2 min 0,000 mm 0,0 UV-I 243 W/m 3,6 C 6,3 C 9,7 km/h (2 Bft) 98,00 %
05.10.2016 08:58 6,3 C 83 % 1027,3 hPa 0,0 l/m 1,5 km/h (1 Bft) N 355 2 min 0,000 mm 0,0 UV-I 246 W/m 3,6 C 6,3 C 4,8 km/h (1 Bft) 100,00 %
05.10.2016 09:00 6,4 C 83 % 1027,3 hPa 0,0 l/m 2,0 km/h (1 Bft) N-NW 332 2 min 0,077 mm 0,0 UV-I 251 W/m 3,7 C 6,4 C 6,4 km/h (2 Bft) 100,00 %
05.10.2016 09:02 6,4 C 83 % 1027,3 hPa 0,0 l/m 2,3 km/h (1 Bft) N 355 2 min 0,000 mm 0,0 UV-I 256 W/m 3,7 C 6,4 C 6,4 km/h (2 Bft) 98,00 %
05.10.2016 09:04 6,5 C 81 % 1027,3 hPa 0,0 l/m 4,1 km/h (1 Bft) N-NW 330 2 min 0,000 mm 0,4 UV-I 264 W/m 3,5 C 6,5 C 9,7 km/h (2 Bft) 97,56 %
05.10.2016 09:06 6,6 C 79 % 1027,3 hPa 0,0 l/m 5,7 km/h (1 Bft) NW 306 2 min 0,000 mm 0,5 UV-I 268 W/m 3,2 C 6,6 C 14,5 km/h (3 Bft) 98,11 %
05.10.2016 09:08 6,6 C 79 % 1027,3 hPa 0,0 l/m 2,0 km/h (1 Bft) N-NW 331 2 min 0,000 mm 0,5 UV-I 274 W/m 3,2 C 6,6 C 4,8 km/h (1 Bft) 100,00 %
05.10.2016 09:10 6,7 C 80 % 1027,3 hPa 0,0 l/m 3,0 km/h (1 Bft) N-NO 24 2 min 0,000 mm 0,5 UV-I 280 W/m 3,5 C 6,7 C 6,4 km/h (2 Bft) 100,00 %
05.10.2016 09:12 6,7 C 80 % 1027,3 hPa 0,0 l/m 2,7 km/h (1 Bft) NW 321 2 min 0,000 mm 0,5 UV-I 284 W/m 3,5 C 6,7 C 4,8 km/h (1 Bft) 97,87 %
05.10.2016 09:14 6,8 C 81 % 1027,3 hPa 0,0 l/m 1,1 km/h (1 Bft) N 351 2 min 0,000 mm 0,5 UV-I 288 W/m 3,8 C 6,8 C 4,8 km/h (1 Bft) 96,00 %
05.10.2016 09:16 6,8 C 79 % 1027,3 hPa 0,0 l/m 2,9 km/h (1 Bft) W 269 2 min 0,000 mm 0,6 UV-I 294 W/m 3,4 C 6,8 C 6,4 km/h (2 Bft) 100,00 %
05.10.2016 09:18 6,9 C 79 % 1027,3 hPa 0,0 l/m 3,7 km/h (1 Bft) NW 325 2 min 0,000 mm 0,6 UV-I 298 W/m 3,5 C 6,9 C 8,0 km/h (2 Bft) 100,00 %
05.10.2016 09:20 6,9 C 78 % 1027,3 hPa 0,0 l/m 5,1 km/h (1 Bft) W-NW 302 2 min 0,000 mm 0,6 UV-I 303 W/m 3,3 C 6,9 C 9,7 km/h (2 Bft) 100,00 %
05.10.2016 09:22 7,0 C 78 % 1027,2 hPa 0,0 l/m 2,8 km/h (1 Bft) N-NW 342 2 min 0,000 mm 0,6 UV-I 309 W/m 3,4 C 7,0 C 12,9 km/h (3 Bft) 100,00 %
05.10.2016 09:24 7,1 C 76 % 1027,3 hPa 0,0 l/m 4,0 km/h (1 Bft) N 355 2 min 0,000 mm 0,6 UV-I 316 W/m 3,2 C 7,1 C 12,9 km/h (3 Bft) 100,00 %
05.10.2016 09:26 7,1 C 77 % 1027,3 hPa 0,0 l/m 5,2 km/h (1 Bft) NW 312 2 min 0,000 mm 0,7 UV-I 321 W/m 3,3 C 7,1 C 12,9 km/h (3 Bft) 97,87 %
05.10.2016 09:28 7,2 C 77 % 1027,3 hPa 0,0 l/m 4,5 km/h (1 Bft) N-NW 344 2 min 0,000 mm 0,7 UV-I 326 W/m 3,4 C 7,2 C 8,0 km/h (2 Bft) 100,00 %
05.10.2016 09:30 7,2 C 76 % 1027,3 hPa 0,0 l/m 6,9 km/h (2 Bft) NW 313 2 min 0,000 mm 0,7 UV-I 331 W/m 3,3 C 6,8 C 9,7 km/h (2 Bft) 97,87 %
05.10.2016 09:32 7,2 C 76 % 1027,3 hPa 0,0 l/m 4,6 km/h (1 Bft) N 351 2 min 0,000 mm 0,7 UV-I 338 W/m 3,3 C 7,2 C 8,0 km/h (2 Bft) 98,21 %
05.10.2016 09:34 7,2 C 77 % 1027,2 hPa 0,0 l/m 4,0 km/h (1 Bft) N-NO 28 2 min 0,000 mm 0,7 UV-I 344 W/m 3,4 C 7,2 C 8,0 km/h (2 Bft) 100,00 %
05.10.2016 09:36 7,3 C 75 % 1027,2 hPa 0,0 l/m 3,7 km/h (1 Bft) N-NW 331 2 min 0,000 mm 0,8 UV-I 347 W/m 3,2 C 7,3 C 8,0 km/h (2 Bft) 100,00 %
05.10.2016 09:38 7,3 C 74 % 1027,2 hPa 0,0 l/m 5,4 km/h (1 Bft) N 355 2 min 0,000 mm 0,8 UV-I 351 W/m 3,0 C 7,3 C 12,9 km/h (3 Bft) 97,87 %
05.10.2016 09:40 7,3 C 76 % 1027,2 hPa 0,0 l/m 5,5 km/h (1 Bft) N-NW 344 2 min 0,000 mm 0,8 UV-I 353 W/m 3,4 C 7,3 C 12,9 km/h (3 Bft) 97,37 %
05.10.2016 09:42 7,3 C 74 % 1027,2 hPa 0,0 l/m 6,4 km/h (2 Bft) N 5 2 min 0,000 mm 0,8 UV-I 359 W/m 3,0 C 7,3 C 16,1 km/h (3 Bft) 98,21 %
05.10.2016 09:44 7,4 C 75 % 1027,2 hPa 0,0 l/m 5,1 km/h (1 Bft) N-NW 327 2 min 0,000 mm 0,8 UV-I 364 W/m 3,3 C 7,4 C 14,5 km/h (3 Bft) 97,56 %
05.10.2016 09:46 7,4 C 75 % 1027,3 hPa 0,0 l/m 2,7 km/h (1 Bft) NW 313 2 min 0,000 mm 0,9 UV-I 368 W/m 3,3 C 7,4 C 4,8 km/h (1 Bft) 98,11 %
05.10.2016 09:48 7,5 C 75 % 1027,3 hPa 0,0 l/m 6,1 km/h (2 Bft) N-NW 337 2 min 0,000 mm 0,9 UV-I 372 W/m 3,4 C 7,5 C 17,7 km/h (3 Bft) 97,37 %
05.10.2016 09:50 7,6 C 75 % 1027,3 hPa 0,0 l/m 7,3 km/h (2 Bft) N 355 2 min 0,000 mm 0,9 UV-I 376 W/m 3,5 C 6,9 C 16,1 km/h (3 Bft) 98,11 %
05.10.2016 09:52 7,6 C 74 % 1027,2 hPa 0,0 l/m 7,5 km/h (2 Bft) N-NO 13 2 min 0,000 mm 0,9 UV-I 382 W/m 3,3 C 6,7 C 16,1 km/h (3 Bft) 97,56 %
05.10.2016 09:54 7,6 C 73 % 1027,2 hPa 0,0 l/m 6,9 km/h (2 Bft) N-NW 327 2 min 0,000 mm 1,0 UV-I 387 W/m 3,1 C 7,2 C 12,9 km/h (3 Bft) 97,87 %
05.10.2016 09:56 7,7 C 74 % 1027,2 hPa 0,0 l/m 4,8 km/h (1 Bft) W-NW 302 2 min 0,000 mm 1,0 UV-I 391 W/m 3,4 C 7,7 C 19,3 km/h (3 Bft) 97,87 %
05.10.2016 09:58 7,6 C 71 % 1027,2 hPa 0,0 l/m 5,2 km/h (1 Bft) W-NW 300 2 min 0,000 mm 1,0 UV-I 396 W/m 2,7 C 7,6 C 9,7 km/h (2 Bft) 97,87 %
05.10.2016 10:00 7,7 C 71 % 1027,2 hPa 0,0 l/m 6,0 km/h (2 Bft) W-NW 298 2 min 0,152 mm 1,0 UV-I 400 W/m 2,8 C 7,7 C 12,9 km/h (3 Bft) 97,87 %
05.10.2016 10:02 7,7 C 71 % 1027,2 hPa 0,0 l/m 5,0 km/h (1 Bft) NW 326 2 min 0,000 mm 1,0 UV-I 403 W/m 2,8 C 7,7 C 9,7 km/h (2 Bft) 94,00 %
05.10.2016 10:04 7,7 C 70 % 1027,2 hPa 0,0 l/m 3,0 km/h (1 Bft) N 360 2 min 0,000 mm 1,1 UV-I 407 W/m 2,6 C 7,7 C 8,0 km/h (2 Bft) 97,44 %
05.10.2016 10:06 7,7 C 73 % 1027,2 hPa 0,0 l/m 2,7 km/h (1 Bft) NW 319 2 min 0,000 mm 1,1 UV-I 412 W/m 3,2 C 7,7 C 8,0 km/h (2 Bft) 98,11 %
05.10.2016 10:08 7,7 C 71 % 1027,2 hPa 0,0 l/m 7,2 km/h (2 Bft) N-NW 332 2 min 0,000 mm 1,1 UV-I 420 W/m 2,8 C 7,1 C 14,5 km/h (3 Bft) 97,87 %
05.10.2016 10:10 7,7 C 71 % 1027,1 hPa 0,0 l/m 3,2 km/h (1 Bft) N-NO 22 2 min 0,000 mm 1,1 UV-I 428 W/m 2,8 C 7,7 C 9,7 km/h (2 Bft) 97,87 %
05.10.2016 10:12 7,8 C 72 % 1027,1 hPa 0,0 l/m 2,9 km/h (1 Bft) NW 316 2 min 0,000 mm 1,2 UV-I 434 W/m 3,1 C 7,8 C 9,7 km/h (2 Bft) 97,87 %
05.10.2016 10:14 7,9 C 74 % 1027,1 hPa 0,0 l/m 3,0 km/h (1 Bft) N 355 2 min 0,000 mm 1,2 UV-I 446 W/m 3,6 C 7,9 C 4,8 km/h (1 Bft) 100,00 %
05.10.2016 10:16 8,0 C 74 % 1027,1 hPa 0,0 l/m 2,9 km/h (1 Bft) N 355 2 min 0,000 mm 1,2 UV-I 467 W/m 3,7 C 8,0 C 4,8 km/h (1 Bft) 100,00 %
05.10.2016 10:18 8,1 C 73 % 1027,2 hPa 0,0 l/m 4,2 km/h (1 Bft) N-NO 13 2 min 0,000 mm 1,3 UV-I 488 W/m 3,6 C 8,1 C 8,0 km/h (2 Bft) 98,00 %
05.10.2016 10:20 8,2 C 73 % 1027,2 hPa 0,0 l/m 3,6 km/h (1 Bft) N-NO 12 2 min 0,000 mm 1,3 UV-I 498 W/m 3,7 C 8,2 C 6,4 km/h (2 Bft) 100,00 %
05.10.2016 10:22 8,2 C 74 % 1027,2 hPa 0,0 l/m 6,1 km/h (2 Bft) NW 314 2 min 0,000 mm 1,3 UV-I 490 W/m 3,8 C 8,2 C 16,1 km/h (3 Bft) 100,00 %
05.10.2016 10:24 8,2 C 72 % 1027,2 hPa 0,0 l/m 2,6 km/h (1 Bft) W 273 2 min 0,000 mm 1,3 UV-I 488 W/m 3,5 C 8,2 C 9,7 km/h (2 Bft) 97,87 %
05.10.2016 10:26 8,3 C 74 % 1027,2 hPa 0,0 l/m 2,2 km/h (1 Bft) N 5 2 min 0,000 mm 1,3 UV-I 497 W/m 3,9 C 8,3 C 6,4 km/h (2 Bft) 100,00 %
05.10.2016 10:28 8,4 C 73 % 1027,2 hPa 0,0 l/m 1,2 km/h (1 Bft) N-NO 17 2 min 0,000 mm 1,3 UV-I 504 W/m 3,8 C 8,4 C 6,4 km/h (2 Bft) 100,00 %
05.10.2016 10:30 8,4 C 73 % 1027,2 hPa 0,0 l/m 4,9 km/h (1 Bft) W-NW 286 2 min 0,000 mm 1,3 UV-I 544 W/m 3,8 C 8,4 C 11,3 km/h (2 Bft) 97,56 %
05.10.2016 10:32 8,5 C 71 % 1027,2 hPa 0,0 l/m 3,2 km/h (1 Bft) NW 321 2 min 0,000 mm 1,2 UV-I 463 W/m 3,5 C 8,5 C 6,4 km/h (2 Bft) 100,00 %
05.10.2016 10:34 8,5 C 72 % 1027,3 hPa 0,0 l/m 2,8 km/h (1 Bft) W-NW 295 0 min 0,000 mm 1,1 UV-I 260 W/m 3,7 C 8,5 C 6,4 km/h (2 Bft) 100,00 %
05.10.2016 10:36 8,4 C 71 % 1027,3 hPa 0,0 l/m 6,0 km/h (2 Bft) W 268 0 min 0,000 mm 1,1 UV-I 184 W/m 3,5 C 8,4 C 11,3 km/h (2 Bft) 98,11 %
05.10.2016 10:38 8,3 C 70 % 1027,3 hPa 0,0 l/m 4,9 km/h (1 Bft) N 355 0 min 0,000 mm 1,0 UV-I 146 W/m 3,2 C 8,3 C 12,9 km/h (3 Bft) 97,87 %
05.10.2016 10:40 8,2 C 70 % 1027,3 hPa 0,0 l/m 5,1 km/h (1 Bft) O-SO 102 0 min 0,000 mm 1,0 UV-I 118 W/m 3,1 C 8,2 C 11,3 km/h (2 Bft) 100,00 %
05.10.2016 10:42 8,1 C 70 % 1027,3 hPa 0,0 l/m 5,0 km/h (1 Bft) N-NO 14 0 min 0,000 mm 1,0 UV-I 101 W/m 3,0 C 8,1 C 9,7 km/h (2 Bft) 100,00 %
05.10.2016 10:44 8,0 C 69 % 1027,3 hPa 0,0 l/m 3,7 km/h (1 Bft) N-NW 345 0 min 0,000 mm 1,0 UV-I 85 W/m 2,7 C 8,0 C 8,0 km/h (2 Bft) 100,00 %
05.10.2016 10:46 7,8 C 70 % 1027,2 hPa 0,0 l/m 1,3 km/h (1 Bft) W-NW 298 0 min 0,000 mm 1,0 UV-I 90 W/m 2,7 C 7,8 C 4,8 km/h (1 Bft) 100,00 %
05.10.2016 10:48 7,8 C 71 % 1027,3 hPa 0,0 l/m 0,8 km/h (0 Bft) W-NW 299 0 min 0,000 mm 1,5 UV-I 255 W/m 2,9 C 7,8 C 3,2 km/h (1 Bft) 100,00 %
05.10.2016 10:50 7,9 C 73 % 1027,2 hPa 0,0 l/m 1,4 km/h (1 Bft) N 5 2 min 0,000 mm 1,6 UV-I 558 W/m 3,4 C 7,9 C 4,8 km/h (1 Bft) 100,00 %
05.10.2016 10:52 7,9 C 71 % 1027,3 hPa 0,0 l/m 1,2 km/h (1 Bft) O-NO 65 2 min 0,000 mm 1,6 UV-I 574 W/m 3,0 C 7,9 C 3,2 km/h (1 Bft) 100,00 %
05.10.2016 10:54 8,1 C 73 % 1027,2 hPa 0,0 l/m 2,6 km/h (1 Bft) N-NO 22 2 min 0,000 mm 1,6 UV-I 583 W/m 3,6 C 8,1 C 4,8 km/h (1 Bft) 100,00 %
05.10.2016 10:56 8,2 C 73 % 1027,3 hPa 0,0 l/m 7,1 km/h (2 Bft) N-NO 17 2 min 0,000 mm 1,6 UV-I 511 W/m 3,7 C 7,7 C 12,9 km/h (3 Bft) 100,00 %
05.10.2016 10:58 8,4 C 73 % 1027,3 hPa 0,0 l/m 1,5 km/h (1 Bft) N-NO 22 2 min 0,000 mm 1,6 UV-I 595 W/m 3,8 C 8,4 C 4,8 km/h (1 Bft) 100,00 %
05.10.2016 11:00 8,6 C 71 % 1027,3 hPa 0,0 l/m 4,3 km/h (1 Bft) W-NW 292 2 min 0,178 mm 1,3 UV-I 605 W/m 3,6 C 8,6 C 17,7 km/h (3 Bft) 100,00 %
05.10.2016 11:02 8,6 C 71 % 1027,3 hPa 0,0 l/m 2,6 km/h (1 Bft) NO 40 2 min 0,000 mm 1,5 UV-I 522 W/m 3,6 C 8,6 C 8,0 km/h (2 Bft) 100,00 %
05.10.2016 11:04 8,7 C 70 % 1027,3 hPa 0,0 l/m 3,0 km/h (1 Bft) N-NW 333 2 min 0,000 mm 1,3 UV-I 298 W/m 3,5 C 8,7 C 9,7 km/h (2 Bft) 100,00 %
05.10.2016 11:06 8,7 C 66 % 1027,3 hPa 0,0 l/m 2,7 km/h (1 Bft) W-NW 299 0 min 0,000 mm 1,3 UV-I 243 W/m 2,7 C 8,7 C 8,0 km/h (2 Bft) 100,00 %
05.10.2016 11:08 8,6 C 65 % 1027,3 hPa 0,0 l/m 2,9 km/h (1 Bft) NW 309 0 min 0,000 mm 1,2 UV-I 241 W/m 2,4 C 8,6 C 6,4 km/h (2 Bft) 97,87 %
05.10.2016 11:10 8,6 C 65 % 1027,2 hPa 0,0 l/m 2,9 km/h (1 Bft) W-NW 302 0 min 0,000 mm 1,2 UV-I 210 W/m 2,4 C 8,6 C 6,4 km/h (2 Bft) 100,00 %
05.10.2016 11:12 8,5 C 66 % 1027,2 hPa 0,0 l/m 3,2 km/h (1 Bft) NW 305 0 min 0,000 mm 1,2 UV-I 169 W/m 2,5 C 8,5 C 8,0 km/h (2 Bft) 100,00 %
05.10.2016 11:14 8,4 C 66 % 1027,2 hPa 0,0 l/m 1,9 km/h (1 Bft) NW 305 0 min 0,000 mm 1,5 UV-I 189 W/m 2,4 C 8,4 C 3,2 km/h (1 Bft) 100,00 %
05.10.2016 11:16 8,5 C 69 % 1027,2 hPa 0,0 l/m 2,3 km/h (1 Bft) W-NW 298 2 min 0,000 mm 1,9 UV-I 489 W/m 3,1 C 8,5 C 4,8 km/h (1 Bft) 100,00 %
05.10.2016 11:18 8,5 C 68 % 1027,3 hPa 0,0 l/m 6,1 km/h (2 Bft) N-NW 342 2 min 0,000 mm 1,7 UV-I 589 W/m 2,9 C 8,5 C 16,1 km/h (3 Bft) 97,73 %
05.10.2016 11:20 8,5 C 65 % 1027,2 hPa 0,0 l/m 5,9 km/h (2 Bft) N-NO 22 2 min 0,000 mm 1,7 UV-I 529 W/m 2,3 C 8,5 C 16,1 km/h (3 Bft) 97,44 %
05.10.2016 11:22 8,4 C 65 % 1027,3 hPa 0,0 l/m 2,8 km/h (1 Bft) N-NW 332 0 min 0,000 mm 1,5 UV-I 294 W/m 2,2 C 8,4 C 4,8 km/h (1 Bft) 98,00 %
05.10.2016 11:24 8,4 C 65 % 1027,2 hPa 0,0 l/m 2,4 km/h (1 Bft) N-NO 23 0 min 0,000 mm 1,5 UV-I 226 W/m 2,2 C 8,4 C 4,8 km/h (1 Bft) 97,87 %
05.10.2016 11:26 8,4 C 68 % 1027,2 hPa 0,0 l/m 5,4 km/h (1 Bft) NW 320 2 min 0,000 mm 1,7 UV-I 531 W/m 2,8 C 8,4 C 11,3 km/h (2 Bft) 96,23 %
05.10.2016 11:28 8,5 C 67 % 1027,2 hPa 0,0 l/m 3,3 km/h (1 Bft) N-NW 339 2 min 0,000 mm 1,9 UV-I 477 W/m 2,7 C 8,5 C 8,0 km/h (2 Bft) 100,00 %
05.10.2016 11:30 8,6 C 66 % 1027,2 hPa 0,0 l/m 2,6 km/h (1 Bft) N-NW 348 0 min 0,000 mm 1,3 UV-I 259 W/m 2,6 C 8,6 C 4,8 km/h (1 Bft) 97,56 %
05.10.2016 11:32 8,6 C 65 % 1027,2 hPa 0,0 l/m 3,7 km/h (1 Bft) N-NW 330 0 min 0,000 mm 1,3 UV-I 200 W/m 2,4 C 8,6 C 8,0 km/h (2 Bft) 96,49 %
05.10.2016 11:34 8,6 C 65 % 1027,2 hPa 0,0 l/m 2,5 km/h (1 Bft) N-NW 336 0 min 0,000 mm 1,3 UV-I 213 W/m 2,4 C 8,6 C 4,8 km/h (1 Bft) 97,87 %
05.10.2016 11:36 8,6 C 64 % 1027,2 hPa 0,0 l/m 3,7 km/h (1 Bft) W-NW 289 0 min 0,000 mm 1,3 UV-I 241 W/m 2,2 C 8,6 C 6,4 km/h (2 Bft) 98,00 %
05.10.2016 11:38 8,6 C 64 % 1027,1 hPa 0,0 l/m 2,1 km/h (1 Bft) NW 315 0 min 0,000 mm 1,2 UV-I 252 W/m 2,2 C 8,6 C 4,8 km/h (1 Bft) 97,87 %
05.10.2016 11:40 8,6 C 66 % 1027,1 hPa 0,0 l/m 2,7 km/h (1 Bft) W-NW 282 0 min 0,000 mm 1,1 UV-I 229 W/m 2,6 C 8,6 C 4,8 km/h (1 Bft) 98,00 %
05.10.2016 11:42 8,6 C 69 % 1027,0 hPa 0,0 l/m 2,8 km/h (1 Bft) W-NW 286 0 min 0,000 mm 1,0 UV-I 173 W/m 3,2 C 8,6 C 4,8 km/h (1 Bft) 92,11 %
05.10.2016 11:44 8,6 C 68 % 1027,0 hPa 0,0 l/m 2,8 km/h (1 Bft) NW 317 0 min 0,000 mm 1,1 UV-I 154 W/m 3,0 C 8,6 C 6,4 km/h (2 Bft) 96,23 %
05.10.2016 11:46 8,6 C 70 % 1027,1 hPa 0,0 l/m 2,1 km/h (1 Bft) W-NW 295 0 min 0,000 mm 1,3 UV-I 197 W/m 3,4 C 8,6 C 4,8 km/h (1 Bft) 100,00 %
05.10.2016 11:48 8,7 C 68 % 1027,0 hPa 0,0 l/m 3,4 km/h (1 Bft) N-NW 327 0 min 0,000 mm 1,3 UV-I 240 W/m 3,1 C 8,7 C 6,4 km/h (2 Bft) 100,00 %
05.10.2016 11:50 8,6 C 67 % 1027,0 hPa 0,0 l/m 5,9 km/h (2 Bft) SW 236 0 min 0,000 mm 1,4 UV-I 266 W/m 2,8 C 8,6 C 12,9 km/h (3 Bft) 100,00 %
05.10.2016 11:52 8,6 C 68 % 1027,0 hPa 0,0 l/m 4,7 km/h (1 Bft) NW 309 0 min 0,000 mm 1,4 UV-I 259 W/m 3,0 C 8,6 C 11,3 km/h (2 Bft) 100,00 %
05.10.2016 11:54 8,6 C 66 % 1027,0 hPa 0,0 l/m 3,8 km/h (1 Bft) N-NW 341 0 min 0,000 mm 1,5 UV-I 259 W/m 2,6 C 8,6 C 8,0 km/h (2 Bft) 98,04 %
05.10.2016 11:56 8,7 C 66 % 1026,9 hPa 0,0 l/m 4,9 km/h (1 Bft) NW 315 0 min 0,000 mm 1,9 UV-I 261 W/m 2,7 C 8,7 C 11,3 km/h (2 Bft) 100,00 %
05.10.2016 11:58 8,7 C 65 % 1026,9 hPa 0,0 l/m 2,8 km/h (1 Bft) NO 50 2 min 0,000 mm 2,0 UV-I 329 W/m 2,5 C 8,7 C 6,4 km/h (2 Bft) 100,00 %
05.10.2016 12:00 8,7 C 67 % 1026,8 hPa 0,0 l/m 2,3 km/h (1 Bft) NW 319 2 min 0,152 mm 2,0 UV-I 417 W/m 2,9 C 8,7 C 8,0 km/h (2 Bft) 98,00 %
05.10.2016 12:02 8,8 C 66 % 1026,8 hPa 0,0 l/m 3,7 km/h (1 Bft) N-NO 13 2 min 0,000 mm 1,9 UV-I 375 W/m 2,8 C 8,8 C 11,3 km/h (2 Bft) 96,15 %
05.10.2016 12:04 8,8 C 66 % 1026,8 hPa 0,0 l/m 2,5 km/h (1 Bft) N 11 0 min 0,000 mm 1,6 UV-I 292 W/m 2,8 C 8,8 C 6,4 km/h (2 Bft) 96,00 %
05.10.2016 12:06 8,9 C 64 % 1026,8 hPa 0,0 l/m 2,2 km/h (1 Bft) N 360 2 min 0,000 mm 1,7 UV-I 328 W/m 2,5 C 8,9 C 4,8 km/h (1 Bft) 100,00 %
05.10.2016 12:08 8,9 C 63 % 1026,7 hPa 0,0 l/m 2,0 km/h (1 Bft) NW 325 2 min 0,000 mm 1,7 UV-I 391 W/m 2,2 C 8,9 C 3,2 km/h (1 Bft) 100,00 %
05.10.2016 12:10 8,9 C 62 % 1026,7 hPa 0,0 l/m 2,1 km/h (1 Bft) N-NW 338 2 min 0,000 mm 1,4 UV-I 351 W/m 2,0 C 8,9 C 3,2 km/h (1 Bft) 100,00 %
05.10.2016 12:12 8,9 C 62 % 1026,7 hPa 0,0 l/m 0,8 km/h (0 Bft) N-NW 338 0 min 0,000 mm 1,2 UV-I 279 W/m 2,0 C 8,9 C 3,2 km/h (1 Bft) 97,87 %
05.10.2016 12:14 9,0 C 62 % 1026,7 hPa 0,0 l/m 1,5 km/h (1 Bft) W-NW 286 0 min 0,000 mm 1,0 UV-I 214 W/m 2,1 C 9,0 C 4,8 km/h (1 Bft) 100,00 %
05.10.2016 12:16 9,1 C 61 % 1026,8 hPa 0,0 l/m 2,1 km/h (1 Bft) W 276 0 min 0,000 mm 0,9 UV-I 194 W/m 2,0 C 9,1 C 4,8 km/h (1 Bft) 100,00 %
05.10.2016 12:18 9,1 C 61 % 1026,7 hPa 0,0 l/m 2,8 km/h (1 Bft) W 270 0 min 0,000 mm 1,0 UV-I 208 W/m 2,0 C 9,1 C 6,4 km/h (2 Bft) 98,21 %
05.10.2016 12:20 9,1 C 62 % 1026,6 hPa 0,0 l/m 3,6 km/h (1 Bft) W-SW 258 0 min 0,000 mm 1,2 UV-I 241 W/m 2,2 C 9,1 C 6,4 km/h (2 Bft) 100,00 %
05.10.2016 12:22 9,1 C 62 % 1026,5 hPa 0,0 l/m 0,9 km/h (0 Bft) W-SW 258 0 min 0,000 mm 1,3 UV-I 260 W/m 2,2 C 9,1 C 3,2 km/h (1 Bft) 100,00 %
05.10.2016 12:24 9,2 C 64 % 1026,5 hPa 0,0 l/m 3,9 km/h (1 Bft) W-NW 292 2 min 0,000 mm 1,4 UV-I 331 W/m 2,8 C 9,2 C 9,7 km/h (2 Bft) 95,74 %
05.10.2016 12:26 9,2 C 64 % 1026,5 hPa 0,0 l/m 4,3 km/h (1 Bft) W 265 2 min 0,000 mm 2,1 UV-I 575 W/m 2,8 C 9,2 C 6,4 km/h (2 Bft) 100,00 %
05.10.2016 12:28 9,3 C 63 % 1026,4 hPa 0,0 l/m 6,0 km/h (2 Bft) W 277 2 min 0,000 mm 2,1 UV-I 631 W/m 2,6 C 9,3 C 11,3 km/h (2 Bft) 100,00 %
05.10.2016 12:30 9,3 C 62 % 1026,4 hPa 0,0 l/m 7,2 km/h (2 Bft) W 277 2 min 0,000 mm 1,9 UV-I 352 W/m 2,4 C 8,7 C 11,3 km/h (2 Bft) 94,74 %
05.10.2016 12:32 9,4 C 61 % 1026,4 hPa 0,0 l/m 3,5 km/h (1 Bft) W-NW 288 2 min 0,000 mm 2,3 UV-I 833 W/m 2,3 C 9,4 C 9,7 km/h (2 Bft) 100,00 %
05.10.2016 12:34 9,4 C 60 % 1026,3 hPa 0,0 l/m 5,4 km/h (1 Bft) SW 225 2 min 0,000 mm 1,8 UV-I 466 W/m 2,0 C 9,4 C 12,9 km/h (3 Bft) 100,00 %
05.10.2016 12:36 9,4 C 63 % 1026,3 hPa 0,0 l/m 7,1 km/h (2 Bft) W 261 2 min 0,000 mm 2,3 UV-I 338 W/m 2,7 C 8,9 C 12,9 km/h (3 Bft) 97,87 %
05.10.2016 12:38 9,6 C 61 % 1026,2 hPa 0,0 l/m 6,0 km/h (2 Bft) SW 236 2 min 0,000 mm 2,4 UV-I 738 W/m 2,5 C 9,6 C 12,9 km/h (3 Bft) 100,00 %
05.10.2016 12:40 9,6 C 62 % 1026,2 hPa 0,0 l/m 6,1 km/h (2 Bft) W 263 2 min 0,000 mm 2,4 UV-I 685 W/m 2,7 C 9,6 C 14,5 km/h (3 Bft) 100,00 %
05.10.2016 12:42 9,8 C 65 % 1026,1 hPa 0,0 l/m 6,1 km/h (2 Bft) W 260 2 min 0,000 mm 2,5 UV-I 697 W/m 3,5 C 9,8 C 12,9 km/h (3 Bft) 98,46 %
05.10.2016 12:44 9,9 C 63 % 1026,0 hPa 0,0 l/m 10,2 km/h (2 Bft) W 272 2 min 0,000 mm 2,5 UV-I 684 W/m 3,2 C 7,4 C 16,1 km/h (3 Bft) 100,00 %
05.10.2016 12:46 9,9 C 64 % 1026,0 hPa 0,0 l/m 5,8 km/h (2 Bft) W-SW 258 2 min 0,000 mm 2,5 UV-I 689 W/m 3,4 C 9,9 C 9,7 km/h (2 Bft) 100,00 %
05.10.2016 12:48 9,9 C 63 % 1026,1 hPa 0,0 l/m 5,9 km/h (2 Bft) W 275 2 min 0,000 mm 2,5 UV-I 735 W/m 3,2 C 9,9 C 9,7 km/h (2 Bft) 100,00 %
05.10.2016 12:50 10,1 C 63 % 1026,1 hPa 0,0 l/m 10,6 km/h (2 Bft) W 259 2 min 0,000 mm 2,6 UV-I 811 W/m 3,4 C 7,4 C 17,7 km/h (3 Bft) 100,00 %
05.10.2016 12:52 10,1 C 65 % 1026,0 hPa 0,0 l/m 7,9 km/h (2 Bft) SW 236 2 min 0,000 mm 2,5 UV-I 849 W/m 3,8 C 9,0 C 14,5 km/h (3 Bft) 98,00 %
05.10.2016 12:54 10,1 C 62 % 1026,0 hPa 0,0 l/m 10,4 km/h (2 Bft) W 259 2 min 0,000 mm 1,9 UV-I 567 W/m 3,2 C 7,5 C 17,7 km/h (3 Bft) 100,00 %
05.10.2016 12:56 10,1 C 61 % 1026,0 hPa 0,0 l/m 11,0 km/h (2 Bft) W-NW 292 2 min 0,000 mm 2,5 UV-I 467 W/m 2,9 C 7,1 C 16,1 km/h (3 Bft) 100,00 %
05.10.2016 12:58 10,0 C 63 % 1025,9 hPa 0,0 l/m 7,8 km/h (2 Bft) W 279 2 min 0,000 mm 2,2 UV-I 846 W/m 3,3 C 9,0 C 16,1 km/h (3 Bft) 98,00 %
05.10.2016 13:00 10,0 C 65 % 1025,9 hPa 0,0 l/m 4,3 km/h (1 Bft) SW 227 2 min 0,254 mm 2,5 UV-I 756 W/m 3,7 C 10,0 C 8,0 km/h (2 Bft) 100,00 %
05.10.2016 13:02 10,1 C 63 % 1025,8 hPa 0,0 l/m 7,3 km/h (2 Bft) W-SW 248 2 min 0,000 mm 2,5 UV-I 740 W/m 3,4 C 9,4 C 17,7 km/h (3 Bft) 98,21 %
05.10.2016 13:04 10,1 C 63 % 1025,8 hPa 0,0 l/m 9,5 km/h (2 Bft) W-SW 250 2 min 0,000 mm 2,5 UV-I 776 W/m 3,4 C 8,0 C 17,7 km/h (3 Bft) 97,87 %
05.10.2016 13:06 10,2 C 62 % 1025,8 hPa 0,0 l/m 5,1 km/h (1 Bft) NW 325 2 min 0,000 mm 1,8 UV-I 517 W/m 3,3 C 10,2 C 11,3 km/h (2 Bft) 97,87 %
05.10.2016 13:08 10,2 C 61 % 1025,8 hPa 0,0 l/m 4,0 km/h (1 Bft) W 268 2 min 0,000 mm 2,2 UV-I 405 W/m 3,0 C 10,2 C 9,7 km/h (2 Bft) 94,74 %
05.10.2016 13:10 10,2 C 59 % 1025,7 hPa 0,0 l/m 6,9 km/h (2 Bft) W-NW 286 2 min 0,000 mm 2,5 UV-I 843 W/m 2,6 C 9,8 C 16,1 km/h (3 Bft) 97,87 %
05.10.2016 13:12 10,2 C 59 % 1025,7 hPa 0,0 l/m 10,0 km/h (2 Bft) W-SW 252 2 min 0,000 mm 2,3 UV-I 825 W/m 2,6 C 7,8 C 16,1 km/h (3 Bft) 96,00 %
05.10.2016 13:14 10,2 C 59 % 1025,7 hPa 0,0 l/m 11,2 km/h (2 Bft) W 277 2 min 0,000 mm 1,6 UV-I 437 W/m 2,6 C 7,2 C 22,5 km/h (4 Bft) 98,11 %
05.10.2016 13:16 10,2 C 61 % 1025,6 hPa 0,0 l/m 5,9 km/h (2 Bft) W-SW 239 2 min 0,000 mm 2,1 UV-I 456 W/m 3,0 C 10,2 C 11,3 km/h (2 Bft) 97,73 %
05.10.2016 13:18 10,2 C 60 % 1025,5 hPa 0,0 l/m 6,6 km/h (2 Bft) W-SW 258 2 min 0,000 mm 2,1 UV-I 724 W/m 2,8 C 10,1 C 12,9 km/h (3 Bft) 96,00 %
05.10.2016 13:20 10,2 C 58 % 1025,5 hPa 0,0 l/m 14,8 km/h (3 Bft) SW 227 2 min 0,000 mm 2,3 UV-I 744 W/m 2,3 C 5,5 C 25,7 km/h (4 Bft) 97,22 %
05.10.2016 13:22 10,2 C 58 % 1025,4 hPa 0,0 l/m 11,4 km/h (2 Bft) W 263 2 min 0,000 mm 2,3 UV-I 782 W/m 2,3 C 7,1 C 19,3 km/h (3 Bft) 98,00 %
05.10.2016 13:24 10,3 C 60 % 1025,5 hPa 0,0 l/m 8,5 km/h (2 Bft) W 263 2 min 0,000 mm 2,3 UV-I 823 W/m 2,9 C 8,8 C 17,7 km/h (3 Bft) 95,74 %
05.10.2016 13:26 10,3 C 59 % 1025,4 hPa 0,0 l/m 6,0 km/h (2 Bft) W 281 2 min 0,000 mm 2,0 UV-I 861 W/m 2,6 C 10,3 C 14,5 km/h (3 Bft) 98,00 %
05.10.2016 13:28 10,4 C 60 % 1025,4 hPa 0,0 l/m 5,9 km/h (2 Bft) N-NW 332 2 min 0,000 mm 1,2 UV-I 443 W/m 3,0 C 10,4 C 11,3 km/h (2 Bft) 97,56 %
05.10.2016 13:30 10,4 C 58 % 1025,3 hPa 0,0 l/m 9,5 km/h (2 Bft) W 273 0 min 0,000 mm 1,0 UV-I 270 W/m 2,5 C 8,3 C 14,5 km/h (3 Bft) 98,21 %
05.10.2016 13:32 10,3 C 57 % 1025,3 hPa 0,0 l/m 9,2 km/h (2 Bft) W-SW 240 0 min 0,000 mm 1,0 UV-I 276 W/m 2,2 C 8,4 C 14,5 km/h (3 Bft) 100,00 %
05.10.2016 13:34 10,2 C 56 % 1025,2 hPa 0,0 l/m 7,8 km/h (2 Bft) W 272 0 min 0,000 mm 1,0 UV-I 302 W/m 1,8 C 9,2 C 14,5 km/h (3 Bft) 94,00 %
05.10.2016 13:36 10,0 C 56 % 1025,2 hPa 0,0 l/m 6,5 km/h (2 Bft) W 276 0 min 0,000 mm 0,8 UV-I 256 W/m 1,6 C 10,0 C 11,3 km/h (2 Bft) 100,00 %
05.10.2016 13:38 9,8 C 57 % 1025,1 hPa 0,0 l/m 10,1 km/h (2 Bft) W-NW 289 0 min 0,000 mm 0,6 UV-I 171 W/m 1,7 C 7,3 C 17,7 km/h (3 Bft) 98,00 %
05.10.2016 13:40 9,7 C 59 % 1025,1 hPa 0,0 l/m 10,0 km/h (2 Bft) W-SW 245 0 min 0,000 mm 0,6 UV-I 147 W/m 2,1 C 7,3 C 16,1 km/h (3 Bft) 100,00 %
05.10.2016 13:42 9,6 C 60 % 1025,1 hPa 0,0 l/m 9,8 km/h (2 Bft) S-SW 213 0 min 0,000 mm 0,5 UV-I 135 W/m 2,2 C 7,3 C 16,1 km/h (3 Bft) 98,21 %
05.10.2016 13:44 9,6 C 60 % 1025,1 hPa 0,0 l/m 8,2 km/h (2 Bft) W 273 0 min 0,000 mm 0,0 UV-I 118 W/m 2,2 C 8,3 C 19,3 km/h (3 Bft) 97,56 %
05.10.2016 13:46 9,5 C 61 % 1025,1 hPa 0,0 l/m 3,5 km/h (1 Bft) W-SW 249 0 min 0,000 mm 0,0 UV-I 98 W/m 2,4 C 9,5 C 8,0 km/h (2 Bft) 100,00 %
05.10.2016 13:48 9,4 C 62 % 1025,1 hPa 0,0 l/m 2,6 km/h (1 Bft) W 278 0 min 0,000 mm 0,0 UV-I 84 W/m 2,5 C 9,4 C 6,4 km/h (2 Bft) 100,00 %
05.10.2016 13:50 9,4 C 61 % 1025,1 hPa 0,0 l/m 4,8 km/h (1 Bft) NW 318 0 min 0,000 mm 0,0 UV-I 83 W/m 2,3 C 9,4 C 12,9 km/h (3 Bft) 97,87 %
05.10.2016 13:52 9,3 C 62 % 1025,1 hPa 0,0 l/m 6,0 km/h (2 Bft) NW 319 0 min 0,000 mm 0,0 UV-I 87 W/m 2,4 C 9,3 C 12,9 km/h (3 Bft) 100,00 %
05.10.2016 13:54 9,2 C 61 % 1025,1 hPa 0,0 l/m 6,4 km/h (2 Bft) NW 322 0 min 0,000 mm 0,0 UV-I 79 W/m 2,1 C 9,2 C 16,1 km/h (3 Bft) 97,37 %
05.10.2016 13:56 9,1 C 61 % 1025,1 hPa 0,0 l/m 4,0 km/h (1 Bft) W-NW 284 0 min 0,000 mm 0,0 UV-I 65 W/m 2,0 C 9,1 C 6,4 km/h (2 Bft) 100,00 %
05.10.2016 13:58 9,1 C 63 % 1025,1 hPa 0,0 l/m 6,3 km/h (2 Bft) N-NW 327 0 min 0,000 mm 0,0 UV-I 59 W/m 2,4 C 9,1 C 12,9 km/h (3 Bft) 100,00 %
05.10.2016 14:00 8,9 C 63 % 1025,1 hPa 0,0 l/m 5,8 km/h (2 Bft) W 274 0 min 0,203 mm 0,0 UV-I 55 W/m 2,2 C 8,9 C 11,3 km/h (2 Bft) 100,00 %
05.10.2016 14:02 8,9 C 64 % 1025,0 hPa 0,0 l/m 6,7 km/h (2 Bft) W-SW 251 0 min 0,000 mm 0,0 UV-I 59 W/m 2,5 C 8,7 C 12,9 km/h (3 Bft) 98,00 %
05.10.2016 14:04 8,8 C 66 % 1025,1 hPa 0,0 l/m 7,4 km/h (2 Bft) NW 304 0 min 0,000 mm 0,0 UV-I 77 W/m 2,8 C 8,0 C 16,1 km/h (3 Bft) 100,00 %
05.10.2016 14:06 8,8 C 67 % 1025,1 hPa 0,0 l/m 3,3 km/h (1 Bft) NW 313 0 min 0,000 mm 0,5 UV-I 101 W/m 3,0 C 8,8 C 8,0 km/h (2 Bft) 100,00 %
05.10.2016 14:08 8,7 C 69 % 1025,1 hPa 0,0 l/m 3,4 km/h (1 Bft) N-NW 328 0 min 0,000 mm 0,7 UV-I 125 W/m 3,3 C 8,7 C 6,4 km/h (2 Bft) 97,37 %
05.10.2016 14:10 8,7 C 69 % 1025,1 hPa 0,0 l/m 3,0 km/h (1 Bft) W-NW 285 0 min 0,000 mm 0,8 UV-I 154 W/m 3,3 C 8,7 C 9,7 km/h (2 Bft) 98,00 %
05.10.2016 14:12 8,7 C 68 % 1025,0 hPa 0,0 l/m 5,0 km/h (1 Bft) NW 325 0 min 0,000 mm 0,9 UV-I 189 W/m 3,1 C 8,7 C 11,3 km/h (2 Bft) 100,00 %
05.10.2016 14:14 8,6 C 69 % 1024,9 hPa 0,0 l/m 2,9 km/h (1 Bft) W-NW 294 0 min 0,000 mm 1,0 UV-I 233 W/m 3,2 C 8,6 C 12,9 km/h (3 Bft) 100,00 %
05.10.2016 14:16 8,7 C 68 % 1024,9 hPa 0,0 l/m 6,9 km/h (2 Bft) SW 232 2 min 0,000 mm 1,1 UV-I 308 W/m 3,1 C 8,3 C 11,3 km/h (2 Bft) 100,00 %
05.10.2016 14:18 8,7 C 70 % 1024,9 hPa 0,0 l/m 5,1 km/h (1 Bft) W-SW 247 2 min 0,000 mm 1,6 UV-I 341 W/m 3,5 C 8,7 C 11,3 km/h (2 Bft) 100,00 %
05.10.2016 14:20 8,8 C 68 % 1024,8 hPa 0,0 l/m 4,0 km/h (1 Bft) W-SW 237 2 min 0,000 mm 1,2 UV-I 341 W/m 3,2 C 8,8 C 6,4 km/h (2 Bft) 97,87 %
05.10.2016 14:22 9,0 C 66 % 1024,7 hPa 0,0 l/m 5,5 km/h (1 Bft) W-SW 240 0 min 0,000 mm 1,0 UV-I 249 W/m 3,0 C 9,0 C 14,5 km/h (3 Bft) 100,00 %
05.10.2016 14:24 9,1 C 68 % 1024,7 hPa 0,0 l/m 6,6 km/h (2 Bft) W 281 0 min 0,000 mm 1,0 UV-I 253 W/m 3,5 C 9,0 C 14,5 km/h (3 Bft) 100,00 %
05.10.2016 14:26 9,2 C 65 % 1024,7 hPa 0,0 l/m 7,3 km/h (2 Bft) W-NW 288 0 min 0,000 mm 1,0 UV-I 264 W/m 3,0 C 8,5 C 16,1 km/h (3 Bft) 100,00 %
05.10.2016 14:28 9,2 C 64 % 1024,6 hPa 0,0 l/m 4,5 km/h (1 Bft) W 259 0 min 0,000 mm 0,9 UV-I 245 W/m 2,8 C 9,2 C 8,0 km/h (2 Bft) 100,00 %
05.10.2016 14:30 9,2 C 65 % 1024,7 hPa 0,0 l/m 6,3 km/h (2 Bft) W 265 0 min 0,000 mm 0,7 UV-I 204 W/m 3,0 C 9,2 C 16,1 km/h (3 Bft) 100,00 %
05.10.2016 14:32 9,3 C 66 % 1024,7 hPa 0,0 l/m 6,4 km/h (2 Bft) NW 318 0 min 0,000 mm 0,5 UV-I 131 W/m 3,3 C 9,3 C 11,3 km/h (2 Bft) 98,00 %
05.10.2016 14:34 9,2 C 65 % 1024,6 hPa 0,0 l/m 5,0 km/h (1 Bft) SO 133 0 min 0,000 mm 0,1 UV-I 89 W/m 3,0 C 9,2 C 11,3 km/h (2 Bft) 100,00 %
05.10.2016 14:36 9,2 C 67 % 1024,7 hPa 0,0 l/m 7,1 km/h (2 Bft) W-SW 251 0 min 0,000 mm 0,0 UV-I 77 W/m 3,4 C 8,7 C 16,1 km/h (3 Bft) 100,00 %
05.10.2016 14:38 9,1 C 68 % 1024,7 hPa 0,0 l/m 4,5 km/h (1 Bft) NW 304 0 min 0,000 mm 0,4 UV-I 83 W/m 3,5 C 9,1 C 11,3 km/h (2 Bft) 100,00 %
05.10.2016 14:40 9,1 C 69 % 1024,8 hPa 0,0 l/m 4,9 km/h (1 Bft) W-NW 297 0 min 0,000 mm 0,6 UV-I 97 W/m 3,7 C 9,1 C 9,7 km/h (2 Bft) 100,00 %
05.10.2016 14:42 8,9 C 69 % 1024,8 hPa 0,0 l/m 3,6 km/h (1 Bft) W-NW 286 0 min 0,000 mm 0,8 UV-I 118 W/m 3,5 C 8,9 C 11,3 km/h (2 Bft) 100,00 %
05.10.2016 14:44 8,9 C 69 % 1024,8 hPa 0,0 l/m 5,7 km/h (1 Bft) W-SW 246 0 min 0,000 mm 0,9 UV-I 135 W/m 3,5 C 8,9 C 12,9 km/h (3 Bft) 100,00 %
05.10.2016 14:46 8,8 C 69 % 1024,7 hPa 0,0 l/m 4,5 km/h (1 Bft) W-SW 238 0 min 0,000 mm 1,1 UV-I 175 W/m 3,4 C 8,8 C 8,0 km/h (2 Bft) 100,00 %
05.10.2016 14:48 8,8 C 70 % 1024,7 hPa 0,0 l/m 8,0 km/h (2 Bft) W-SW 244 2 min 0,000 mm 1,4 UV-I 315 W/m 3,6 C 7,6 C 17,7 km/h (3 Bft) 100,00 %
05.10.2016 14:50 8,9 C 68 % 1024,7 hPa 0,0 l/m 9,3 km/h (2 Bft) W 260 2 min 0,000 mm 1,5 UV-I 583 W/m 3,3 C 6,8 C 19,3 km/h (3 Bft) 100,00 %
05.10.2016 14:52 9,1 C 67 % 1024,7 hPa 0,0 l/m 8,5 km/h (2 Bft) W 266 2 min 0,000 mm 1,5 UV-I 575 W/m 3,3 C 7,6 C 14,5 km/h (3 Bft) 98,00 %
05.10.2016 14:54 9,2 C 66 % 1024,6 hPa 0,0 l/m 5,5 km/h (1 Bft) NW 312 2 min 0,000 mm 1,5 UV-I 598 W/m 3,2 C 9,2 C 19,3 km/h (3 Bft) 97,56 %
05.10.2016 14:56 9,3 C 65 % 1024,7 hPa 0,0 l/m 11,6 km/h (2 Bft) SW 221 2 min 0,000 mm 1,5 UV-I 637 W/m 3,1 C 5,9 C 19,3 km/h (3 Bft) 96,23 %
05.10.2016 14:58 9,5 C 65 % 1024,6 hPa 0,0 l/m 7,4 km/h (2 Bft) NW 306 2 min 0,000 mm 1,3 UV-I 649 W/m 3,3 C 8,8 C 19,3 km/h (3 Bft) 96,00 %
05.10.2016 15:00 9,6 C 65 % 1024,6 hPa 0,0 l/m 6,7 km/h (2 Bft) NW 316 2 min 0,153 mm 0,7 UV-I 467 W/m 3,4 C 9,4 C 17,7 km/h (3 Bft) 97,56 %
05.10.2016 15:02 9,7 C 65 % 1024,6 hPa 0,0 l/m 3,3 km/h (1 Bft) S 172 0 min 0,000 mm 0,1 UV-I 103 W/m 3,4 C 9,7 C 8,0 km/h (2 Bft) 98,00 %
05.10.2016 15:04 9,6 C 67 % 1024,7 hPa 0,2 l/m 9,8 km/h (2 Bft) W-NW 292 0 min 0,000 mm 0,0 UV-I 67 W/m 3,8 C 7,3 C 19,3 km/h (3 Bft) 93,62 %
05.10.2016 15:06 9,4 C 69 % 1024,8 hPa 0,2 l/m 9,0 km/h (2 Bft) W-SW 252 0 min 0,000 mm 0,0 UV-I 48 W/m 4,0 C 7,6 C 17,7 km/h (3 Bft) 97,37 %
05.10.2016 15:08 9,1 C 71 % 1024,7 hPa 0,0 l/m 11,2 km/h (2 Bft) W 259 0 min 0,000 mm 0,0 UV-I 46 W/m 4,1 C 5,9 C 17,7 km/h (3 Bft) 98,31 %
05.10.2016 15:10 8,7 C 72 % 1024,7 hPa 0,0 l/m 9,2 km/h (2 Bft) W-SW 251 0 min 0,000 mm 0,0 UV-I 52 W/m 3,9 C 6,7 C 14,5 km/h (3 Bft) 95,12 %
05.10.2016 15:12 8,4 C 73 % 1024,6 hPa 0,0 l/m 9,5 km/h (2 Bft) W 259 0 min 0,000 mm 0,1 UV-I 62 W/m 3,8 C 6,1 C 16,1 km/h (3 Bft) 96,30 %
05.10.2016 15:14 8,2 C 76 % 1024,5 hPa 0,0 l/m 8,9 km/h (2 Bft) SW 225 0 min 0,000 mm 0,6 UV-I 69 W/m 4,2 C 6,3 C 17,7 km/h (3 Bft) 96,88 %
05.10.2016 15:16 8,0 C 77 % 1024,4 hPa 0,0 l/m 8,3 km/h (2 Bft) W-SW 237 0 min 0,000 mm 0,7 UV-I 76 W/m 4,2 C 6,5 C 12,9 km/h (3 Bft) 96,23 %
05.10.2016 15:18 7,9 C 78 % 1024,5 hPa 0,0 l/m 7,2 km/h (2 Bft) W 272 0 min 0,000 mm 0,9 UV-I 138 W/m 4,3 C 7,3 C 11,3 km/h (2 Bft) 97,22 %
05.10.2016 15:20 7,9 C 79 % 1024,4 hPa 0,0 l/m 4,3 km/h (1 Bft) W-SW 255 2 min 0,000 mm 1,1 UV-I 286 W/m 4,5 C 7,9 C 6,4 km/h (2 Bft) 100,00 %
05.10.2016 15:22 7,9 C 80 % 1024,4 hPa 0,0 l/m 5,0 km/h (1 Bft) W 267 2 min 0,000 mm 1,2 UV-I 457 W/m 4,7 C 7,9 C 9,7 km/h (2 Bft) 100,00 %
05.10.2016 15:24 8,0 C 82 % 1024,4 hPa 0,0 l/m 4,8 km/h (1 Bft) W-SW 244 2 min 0,000 mm 1,2 UV-I 455 W/m 5,1 C 8,0 C 6,4 km/h (2 Bft) 100,00 %
05.10.2016 15:26 8,2 C 81 % 1024,4 hPa 0,0 l/m 5,2 km/h (1 Bft) W 259 2 min 0,000 mm 1,2 UV-I 419 W/m 5,1 C 8,2 C 11,3 km/h (2 Bft) 96,00 %
05.10.2016 15:28 8,3 C 81 % 1024,3 hPa 0,0 l/m 9,0 km/h (2 Bft) W-SW 250 2 min 0,000 mm 1,2 UV-I 444 W/m 5,2 C 6,4 C 16,1 km/h (3 Bft) 97,56 %
05.10.2016 15:30 8,4 C 78 % 1024,3 hPa 0,0 l/m 8,7 km/h (2 Bft) W 261 2 min 0,000 mm 1,1 UV-I 449 W/m 4,8 C 6,7 C 12,9 km/h (3 Bft) 100,00 %
05.10.2016 15:32 8,6 C 77 % 1024,4 hPa 0,0 l/m 9,6 km/h (2 Bft) W 266 2 min 0,000 mm 1,1 UV-I 443 W/m 4,8 C 6,3 C 16,1 km/h (3 Bft) 100,00 %
05.10.2016 15:34 8,8 C 76 % 1024,3 hPa 0,0 l/m 6,3 km/h (2 Bft) W-SW 242 2 min 0,000 mm 1,1 UV-I 446 W/m 4,8 C 8,8 C 12,9 km/h (3 Bft) 100,00 %
05.10.2016 15:36 8,9 C 77 % 1024,2 hPa 0,0 l/m 6,9 km/h (2 Bft) W 275 2 min 0,000 mm 1,0 UV-I 441 W/m 5,1 C 8,5 C 14,5 km/h (3 Bft) 100,00 %
05.10.2016 15:38 9,1 C 76 % 1024,2 hPa 0,0 l/m 8,3 km/h (2 Bft) W 270 2 min 0,000 mm 1,0 UV-I 378 W/m 5,1 C 7,7 C 14,5 km/h (3 Bft) 100,00 %
05.10.2016 15:40 9,2 C 72 % 1024,2 hPa 0,0 l/m 10,1 km/h (2 Bft) W-SW 239 2 min 0,000 mm 1,0 UV-I 476 W/m 4,4 C 6,7 C 17,7 km/h (3 Bft) 100,00 %
05.10.2016 15:42 9,3 C 70 % 1024,1 hPa 0,0 l/m 8,6 km/h (2 Bft) S-SW 211 2 min 0,000 mm 0,7 UV-I 335 W/m 4,1 C 7,7 C 14,5 km/h (3 Bft) 100,00 %
05.10.2016 15:44 9,3 C 71 % 1024,1 hPa 0,0 l/m 7,6 km/h (2 Bft) W 262 2 min 0,000 mm 0,7 UV-I 264 W/m 4,3 C 8,4 C 16,1 km/h (3 Bft) 100,00 %
05.10.2016 15:46 9,3 C 70 % 1024,0 hPa 0,0 l/m 8,2 km/h (2 Bft) W-SW 248 0 min 0,000 mm 0,5 UV-I 188 W/m 4,1 C 8,0 C 16,1 km/h (3 Bft) 100,00 %
05.10.2016 15:48 9,3 C 69 % 1024,0 hPa 0,0 l/m 10,0 km/h (2 Bft) W-SW 239 0 min 0,000 mm 0,5 UV-I 120 W/m 3,9 C 6,8 C 16,1 km/h (3 Bft) 100,00 %
05.10.2016 15:50 9,3 C 69 % 1024,0 hPa 0,0 l/m 6,3 km/h (2 Bft) SW 227 0 min 0,000 mm 0,5 UV-I 116 W/m 3,9 C 9,3 C 11,3 km/h (2 Bft) 100,00 %
05.10.2016 15:52 9,2 C 69 % 1024,0 hPa 0,0 l/m 10,4 km/h (2 Bft) NW 316 0 min 0,000 mm 0,6 UV-I 101 W/m 3,8 C 6,5 C 19,3 km/h (3 Bft) 100,00 %
05.10.2016 15:54 9,1 C 70 % 1024,0 hPa 0,2 l/m 5,1 km/h (1 Bft) NW 317 0 min 0,000 mm 0,6 UV-I 87 W/m 3,9 C 9,1 C 12,9 km/h (3 Bft) 97,50 %
05.10.2016 15:56 9,1 C 70 % 1024,0 hPa 0,0 l/m 6,7 km/h (2 Bft) W 277 0 min 0,000 mm 0,6 UV-I 77 W/m 3,9 C 8,9 C 17,7 km/h (3 Bft) 100,00 %
05.10.2016 15:58 8,9 C 71 % 1024,1 hPa 0,0 l/m 12,4 km/h (3 Bft) W-SW 248 0 min 0,000 mm 0,6 UV-I 81 W/m 3,9 C 5,0 C 20,9 km/h (4 Bft) 100,00 %
05.10.2016 16:00 8,7 C 69 % 1024,1 hPa 0,0 l/m 9,9 km/h (2 Bft) W 277 0 min 0,127 mm 0,6 UV-I 93 W/m 3,3 C 6,2 C 14,5 km/h (3 Bft) 98,00 %
05.10.2016 16:02 8,6 C 71 % 1024,0 hPa 0,0 l/m 8,3 km/h (2 Bft) W 269 0 min 0,000 mm 0,6 UV-I 171 W/m 3,6 C 7,2 C 14,5 km/h (3 Bft) 100,00 %
05.10.2016 16:04 8,4 C 72 % 1024,0 hPa 0,0 l/m 5,3 km/h (1 Bft) W 261 2 min 0,000 mm 0,7 UV-I 276 W/m 3,7 C 8,4 C 9,7 km/h (2 Bft) 100,00 %
05.10.2016 16:06 8,4 C 72 % 1024,0 hPa 0,0 l/m 6,1 km/h (2 Bft) W 260 2 min 0,000 mm 0,7 UV-I 418 W/m 3,7 C 8,4 C 11,3 km/h (2 Bft) 100,00 %
05.10.2016 16:08 8,4 C 73 % 1024,0 hPa 0,0 l/m 5,7 km/h (1 Bft) W-SW 244 2 min 0,000 mm 0,7 UV-I 213 W/m 3,8 C 8,4 C 9,7 km/h (2 Bft) 100,00 %
05.10.2016 16:10 8,4 C 73 % 1024,0 hPa 0,0 l/m 6,8 km/h (2 Bft) W-SW 257 2 min 0,000 mm 0,7 UV-I 330 W/m 3,8 C 8,1 C 11,3 km/h (2 Bft) 100,00 %
05.10.2016 16:12 8,4 C 73 % 1023,9 hPa 0,0 l/m 6,0 km/h (2 Bft) W 267 2 min 0,000 mm 0,6 UV-I 256 W/m 3,8 C 8,4 C 12,9 km/h (3 Bft) 96,43 %
05.10.2016 16:14 8,4 C 72 % 1024,0 hPa 0,0 l/m 6,1 km/h (2 Bft) W 268 0 min 0,000 mm 0,5 UV-I 123 W/m 3,7 C 8,4 C 11,3 km/h (2 Bft) 100,00 %
05.10.2016 16:16 8,4 C 72 % 1023,9 hPa 0,0 l/m 4,8 km/h (1 Bft) W-NW 291 0 min 0,000 mm 0,5 UV-I 72 W/m 3,7 C 8,4 C 6,4 km/h (2 Bft) 100,00 %
05.10.2016 16:18 8,4 C 73 % 1023,9 hPa 0,0 l/m 5,5 km/h (1 Bft) W 259 0 min 0,000 mm 0,1 UV-I 54 W/m 3,8 C 8,4 C 9,7 km/h (2 Bft) 97,87 %
05.10.2016 16:20 8,3 C 72 % 1023,9 hPa 0,0 l/m 7,3 km/h (2 Bft) W-SW 257 0 min 0,000 mm 0,0 UV-I 47 W/m 3,6 C 7,6 C 12,9 km/h (3 Bft) 100,00 %
05.10.2016 16:22 8,3 C 73 % 1024,0 hPa 0,0 l/m 4,4 km/h (1 Bft) W-SW 250 0 min 0,000 mm 0,1 UV-I 52 W/m 3,8 C 8,3 C 6,4 km/h (2 Bft) 100,00 %
05.10.2016 16:24 8,3 C 73 % 1024,0 hPa 0,0 l/m 4,6 km/h (1 Bft) W-SW 246 2 min 0,000 mm 0,6 UV-I 185 W/m 3,8 C 8,3 C 8,0 km/h (2 Bft) 98,00 %
05.10.2016 16:26 8,3 C 74 % 1024,0 hPa 0,0 l/m 5,0 km/h (1 Bft) W-SW 251 2 min 0,000 mm 0,6 UV-I 330 W/m 3,9 C 8,3 C 8,0 km/h (2 Bft) 100,00 %
05.10.2016 16:28 8,3 C 74 % 1024,0 hPa 0,0 l/m 6,1 km/h (2 Bft) W 259 2 min 0,000 mm 0,6 UV-I 331 W/m 3,9 C 8,3 C 9,7 km/h (2 Bft) 100,00 %
05.10.2016 16:30 8,5 C 75 % 1023,9 hPa 0,0 l/m 6,0 km/h (2 Bft) W-SW 252 2 min 0,000 mm 0,5 UV-I 335 W/m 4,3 C 8,5 C 11,3 km/h (2 Bft) 100,00 %
05.10.2016 16:32 8,6 C 72 % 1024,0 hPa 0,0 l/m 8,9 km/h (2 Bft) W 261 2 min 0,000 mm 0,5 UV-I 351 W/m 3,8 C 6,8 C 16,1 km/h (3 Bft) 95,83 %
05.10.2016 16:34 8,7 C 72 % 1024,0 hPa 0,0 l/m 11,9 km/h (2 Bft) W 275 2 min 0,000 mm 0,2 UV-I 356 W/m 3,9 C 5,1 C 17,7 km/h (3 Bft) 96,77 %
05.10.2016 16:36 8,8 C 71 % 1024,0 hPa 0,0 l/m 8,2 km/h (2 Bft) W 281 0 min 0,000 mm 0,0 UV-I 130 W/m 3,8 C 7,5 C 14,5 km/h (3 Bft) 96,15 %
05.10.2016 16:38 8,9 C 72 % 1024,1 hPa 0,0 l/m 6,7 km/h (2 Bft) W-SW 250 0 min 0,000 mm 0,0 UV-I 95 W/m 4,1 C 8,7 C 11,3 km/h (2 Bft) 97,62 %
05.10.2016 16:40 8,9 C 72 % 1024,1 hPa 0,0 l/m 8,0 km/h (2 Bft) W 277 0 min 0,000 mm 0,0 UV-I 93 W/m 4,1 C 7,7 C 14,5 km/h (3 Bft) 96,00 %
05.10.2016 16:42 8,9 C 72 % 1024,2 hPa 0,0 l/m 7,2 km/h (2 Bft) W-NW 293 0 min 0,000 mm 0,0 UV-I 57 W/m 4,1 C 8,3 C 14,5 km/h (3 Bft) 97,37 %
05.10.2016 16:44 8,9 C 73 % 1024,2 hPa 0,0 l/m 4,9 km/h (1 Bft) W 277 0 min 0,000 mm 0,0 UV-I 43 W/m 4,3 C 8,9 C 11,3 km/h (2 Bft) 94,64 %
05.10.2016 16:46 8,9 C 72 % 1024,2 hPa 0,0 l/m 5,3 km/h (1 Bft) W 269 0 min 0,000 mm 0,0 UV-I 36 W/m 4,1 C 8,9 C 12,9 km/h (3 Bft) 98,00 %
05.10.2016 16:48 8,9 C 73 % 1024,1 hPa 0,0 l/m 5,0 km/h (1 Bft) NW 318 0 min 0,000 mm 0,0 UV-I 34 W/m 4,3 C 8,9 C 11,3 km/h (2 Bft) 95,45 %
05.10.2016 16:50 8,8 C 71 % 1023,8 hPa 0,0 l/m 2,7 km/h (1 Bft) NW 312 0 min 0,000 mm 0,0 UV-I 39 W/m 3,8 C 8,8 C 6,4 km/h (2 Bft) 96,00 %
05.10.2016 16:52 8,8 C 71 % 1023,7 hPa 0,0 l/m 1,9 km/h (1 Bft) NW 309 0 min 0,000 mm 0,0 UV-I 52 W/m 3,8 C 8,8 C 4,8 km/h (1 Bft) 97,37 %
05.10.2016 16:54 8,7 C 72 % 1023,8 hPa 0,0 l/m 2,2 km/h (1 Bft) W-NW 286 0 min 0,000 mm 0,0 UV-I 78 W/m 3,9 C 8,7 C 9,7 km/h (2 Bft) 98,00 %
05.10.2016 16:56 8,7 C 72 % 1023,9 hPa 0,0 l/m 2,3 km/h (1 Bft) NW 310 0 min 0,000 mm 0,0 UV-I 102 W/m 3,9 C 8,7 C 6,4 km/h (2 Bft) 95,45 %
05.10.2016 16:58 8,7 C 73 % 1023,9 hPa 0,0 l/m 1,7 km/h (1 Bft) NW 309 0 min 0,000 mm 0,0 UV-I 104 W/m 4,1 C 8,7 C 3,2 km/h (1 Bft) 94,34 %
05.10.2016 17:00 8,7 C 75 % 1023,8 hPa 0,0 l/m 4,0 km/h (1 Bft) W-SW 244 0 min 0,076 mm 0,0 UV-I 106 W/m 4,5 C 8,7 C 6,4 km/h (2 Bft) 97,87 %
05.10.2016 17:02 8,7 C 74 % 1023,8 hPa 0,0 l/m 5,2 km/h (1 Bft) W 271 0 min 0,000 mm 0,0 UV-I 102 W/m 4,3 C 8,7 C 11,3 km/h (2 Bft) 97,37 %
05.10.2016 17:04 8,6 C 73 % 1023,8 hPa 0,0 l/m 4,0 km/h (1 Bft) W 271 2 min 0,000 mm 0,0 UV-I 145 W/m 4,0 C 8,6 C 9,7 km/h (2 Bft) 98,00 %
05.10.2016 17:06 8,6 C 73 % 1023,8 hPa 0,0 l/m 7,1 km/h (2 Bft) W-SW 238 2 min 0,000 mm 0,0 UV-I 145 W/m 4,0 C 8,1 C 12,9 km/h (3 Bft) 97,73 %
05.10.2016 17:08 8,6 C 73 % 1023,8 hPa 0,0 l/m 9,3 km/h (2 Bft) W-SW 248 0 min 0,000 mm 0,0 UV-I 108 W/m 4,0 C 6,5 C 14,5 km/h (3 Bft) 100,00 %
05.10.2016 17:10 8,7 C 73 % 1023,6 hPa 0,0 l/m 7,3 km/h (2 Bft) W 264 0 min 0,000 mm 0,0 UV-I 89 W/m 4,1 C 8,0 C 12,9 km/h (3 Bft) 100,00 %
05.10.2016 17:12 8,7 C 71 % 1023,6 hPa 0,0 l/m 8,8 km/h (2 Bft) SW 235 0 min 0,000 mm 0,0 UV-I 106 W/m 3,7 C 6,9 C 14,5 km/h (3 Bft) 98,57 %
05.10.2016 17:14 8,7 C 71 % 1023,5 hPa 0,0 l/m 11,8 km/h (2 Bft) W 269 0 min 0,000 mm 0,0 UV-I 85 W/m 3,7 C 5,1 C 19,3 km/h (3 Bft) 100,00 %
05.10.2016 17:16 8,7 C 70 % 1023,5 hPa 0,0 l/m 9,1 km/h (2 Bft) W 265 0 min 0,000 mm 0,0 UV-I 90 W/m 3,5 C 6,7 C 16,1 km/h (3 Bft) 100,00 %
05.10.2016 17:18 8,7 C 71 % 1023,5 hPa 0,0 l/m 8,1 km/h (2 Bft) W-NW 285 0 min 0,000 mm 0,0 UV-I 88 W/m 3,7 C 7,4 C 12,9 km/h (3 Bft) 100,00 %
05.10.2016 17:20 8,7 C 70 % 1023,5 hPa 0,0 l/m 6,6 km/h (2 Bft) W-SW 242 0 min 0,000 mm 0,0 UV-I 86 W/m 3,5 C 8,6 C 11,3 km/h (2 Bft) 100,00 %
05.10.2016 17:22 8,7 C 72 % 1023,5 hPa 0,0 l/m 6,8 km/h (2 Bft) W 277 0 min 0,000 mm 0,0 UV-I 81 W/m 3,9 C 8,4 C 11,3 km/h (2 Bft) 100,00 %
05.10.2016 17:24 8,7 C 72 % 1023,5 hPa 0,0 l/m 6,1 km/h (2 Bft) W 266 0 min 0,000 mm 0,0 UV-I 81 W/m 3,9 C 8,7 C 12,9 km/h (3 Bft) 100,00 %
05.10.2016 17:26 8,7 C 72 % 1023,5 hPa 0,0 l/m 5,7 km/h (1 Bft) W 259 0 min 0,000 mm 0,0 UV-I 83 W/m 3,9 C 8,7 C 11,3 km/h (2 Bft) 100,00 %
05.10.2016 17:28 8,7 C 71 % 1023,5 hPa 0,0 l/m 6,5 km/h (2 Bft) W 272 0 min 0,000 mm 0,0 UV-I 80 W/m 3,7 C 8,6 C 12,9 km/h (3 Bft) 100,00 %
05.10.2016 17:30 8,7 C 70 % 1023,5 hPa 0,0 l/m 10,5 km/h (2 Bft) W 269 0 min 0,000 mm 0,0 UV-I 75 W/m 3,5 C 5,9 C 20,9 km/h (4 Bft) 100,00 %
05.10.2016 17:32 8,6 C 71 % 1023,5 hPa 0,0 l/m 6,4 km/h (2 Bft) W 277 0 min 0,000 mm 0,0 UV-I 75 W/m 3,6 C 8,6 C 12,9 km/h (3 Bft) 100,00 %
05.10.2016 17:34 8,7 C 70 % 1023,5 hPa 0,0 l/m 14,3 km/h (3 Bft) W-NW 284 0 min 0,000 mm 0,0 UV-I 71 W/m 3,5 C 3,9 C 22,5 km/h (4 Bft) 100,00 %
05.10.2016 17:36 8,7 C 70 % 1023,4 hPa 0,0 l/m 12,3 km/h (3 Bft) W 263 0 min 0,000 mm 0,0 UV-I 71 W/m 3,5 C 4,9 C 22,5 km/h (4 Bft) 100,00 %
05.10.2016 17:38 8,6 C 70 % 1023,4 hPa 0,0 l/m 12,2 km/h (2 Bft) W 272 0 min 0,000 mm 0,0 UV-I 73 W/m 3,4 C 4,8 C 20,9 km/h (4 Bft) 100,00 %
05.10.2016 17:40 8,7 C 70 % 1023,4 hPa 0,0 l/m 8,6 km/h (2 Bft) SW 225 0 min 0,000 mm 0,0 UV-I 73 W/m 3,5 C 7,1 C 14,5 km/h (3 Bft) 98,11 %
05.10.2016 17:42 8,7 C 69 % 1023,4 hPa 0,0 l/m 6,9 km/h (2 Bft) W-SW 255 0 min 0,000 mm 0,0 UV-I 71 W/m 3,3 C 8,3 C 14,5 km/h (3 Bft) 100,00 %
05.10.2016 17:44 8,7 C 70 % 1023,4 hPa 0,0 l/m 5,6 km/h (1 Bft) W 277 0 min 0,000 mm 0,0 UV-I 69 W/m 3,5 C 8,7 C 14,5 km/h (3 Bft) 100,00 %
05.10.2016 17:46 8,7 C 70 % 1023,4 hPa 0,0 l/m 6,3 km/h (2 Bft) SW 220 0 min 0,000 mm 0,0 UV-I 65 W/m 3,5 C 8,7 C 11,3 km/h (2 Bft) 100,00 %
05.10.2016 17:48 8,7 C 70 % 1023,4 hPa 0,0 l/m 9,4 km/h (2 Bft) W-SW 254 0 min 0,000 mm 0,0 UV-I 62 W/m 3,5 C 6,5 C 14,5 km/h (3 Bft) 100,00 %
05.10.2016 17:50 8,6 C 71 % 1023,4 hPa 0,0 l/m 13,8 km/h (3 Bft) W-NW 296 0 min 0,000 mm 0,0 UV-I 59 W/m 3,6 C 4,0 C 27,4 km/h (4 Bft) 100,00 %
05.10.2016 17:52 8,6 C 71 % 1023,4 hPa 0,0 l/m 15,1 km/h (3 Bft) SW 236 0 min 0,000 mm 0,0 UV-I 56 W/m 3,6 C 3,4 C 24,1 km/h (4 Bft) 100,00 %
05.10.2016 17:54 8,5 C 72 % 1023,5 hPa 0,0 l/m 12,4 km/h (3 Bft) W-SW 242 2 min 0,000 mm 0,0 UV-I 56 W/m 3,7 C 4,6 C 16,1 km/h (3 Bft) 98,21 %
05.10.2016 17:56 8,4 C 72 % 1023,4 hPa 0,0 l/m 13,4 km/h (3 Bft) SW 234 2 min 0,000 mm 0,0 UV-I 53 W/m 3,7 C 3,9 C 20,9 km/h (4 Bft) 100,00 %
05.10.2016 17:58 8,3 C 73 % 1023,4 hPa 0,0 l/m 11,6 km/h (2 Bft) W-SW 250 2 min 0,000 mm 0,0 UV-I 50 W/m 3,8 C 4,8 C 20,9 km/h (4 Bft) 100,00 %
05.10.2016 18:00 8,2 C 73 % 1023,4 hPa 0,0 l/m 13,1 km/h (3 Bft) W-SW 238 2 min 0,076 mm 0,0 UV-I 46 W/m 3,7 C 3,9 C 20,9 km/h (4 Bft) 100,00 %
05.10.2016 18:02 8,1 C 73 % 1023,4 hPa 0,0 l/m 15,3 km/h (3 Bft) W-SW 247 2 min 0,000 mm 0,0 UV-I 43 W/m 3,6 C 2,7 C 20,9 km/h (4 Bft) 100,00 %
05.10.2016 18:04 8,0 C 74 % 1023,5 hPa 0,0 l/m 8,5 km/h (2 Bft) W-SW 250 2 min 0,000 mm 0,0 UV-I 40 W/m 3,7 C 6,4 C 12,9 km/h (3 Bft) 100,00 %
05.10.2016 18:06 7,9 C 74 % 1023,5 hPa 0,0 l/m 10,5 km/h (2 Bft) W 261 2 min 0,000 mm 0,0 UV-I 39 W/m 3,6 C 5,0 C 16,1 km/h (3 Bft) 100,00 %
05.10.2016 18:09 7,8 C 74 % 1023,5 hPa 0,0 l/m 11,4 km/h (2 Bft) W-SW 252 3 min 0,000 mm 0,0 UV-I 34 W/m 3,5 C 4,3 C 17,7 km/h (3 Bft) 100,00 %
05.10.2016 18:10 7,7 C 74 % 1023,5 hPa 0,0 l/m 9,7 km/h (2 Bft) SW 227 0 min 0,000 mm 0,0 UV-I 30 W/m 3,4 C 5,2 C 16,1 km/h (3 Bft) 93,33 %
05.10.2016 18:12 7,7 C 74 % 1023,5 hPa 0,0 l/m 13,5 km/h (3 Bft) W-SW 252 0 min 0,000 mm 0,0 UV-I 26 W/m 3,4 C 3,1 C 19,3 km/h (3 Bft) 98,21 %
05.10.2016 18:14 7,7 C 75 % 1023,5 hPa 0,0 l/m 13,8 km/h (3 Bft) W 266 2 min 0,000 mm 0,0 UV-I 24 W/m 3,6 C 2,9 C 19,3 km/h (3 Bft) 100,00 %
05.10.2016 18:16 7,6 C 75 % 1023,4 hPa 0,0 l/m 11,6 km/h (2 Bft) W-SW 252 0 min 0,000 mm 0,0 UV-I 20 W/m 3,5 C 4,0 C 16,1 km/h (3 Bft) 100,00 %
05.10.2016 18:19 7,6 C 76 % 1023,3 hPa 0,0 l/m 14,8 km/h (3 Bft) W-NW 282 0 min 0,000 mm 0,0 UV-I 13 W/m 3,6 C 2,3 C 20,9 km/h (4 Bft) 98,53 %
05.10.2016 18:20 7,5 C 76 % 1023,4 hPa 0,0 l/m 13,9 km/h (3 Bft) W-SW 247 0 min 0,000 mm 0,0 UV-I 11 W/m 3,5 C 2,6 C 19,3 km/h (3 Bft) 100,00 %
05.10.2016 18:22 7,4 C 75 % 1023,3 hPa 0,0 l/m 15,6 km/h (3 Bft) W-SW 241 0 min 0,000 mm 0,0 UV-I 8 W/m 3,3 C 1,7 C 24,1 km/h (4 Bft) 100,00 %
05.10.2016 18:24 7,4 C 76 % 1023,3 hPa 0,0 l/m 13,6 km/h (3 Bft) W 261 0 min 0,000 mm 0,0 UV-I 7 W/m 3,5 C 2,7 C 20,9 km/h (4 Bft) 98,11 %
05.10.2016 18:26 7,4 C 76 % 1023,3 hPa 0,0 l/m 13,0 km/h (3 Bft) W-SW 246 0 min 0,000 mm 0,0 UV-I 7 W/m 3,5 C 3,0 C 17,7 km/h (3 Bft) 97,37 %
05.10.2016 18:28 7,4 C 76 % 1023,4 hPa 0,0 l/m 11,0 km/h (2 Bft) W 260 0 min 0,000 mm 0,0 UV-I 5 W/m 3,5 C 4,1 C 16,1 km/h (3 Bft) 98,00 %
05.10.2016 18:30 7,3 C 76 % 1023,4 hPa 0,0 l/m 10,8 km/h (2 Bft) SW 227 0 min 0,000 mm 0,0 UV-I 2 W/m 3,4 C 4,1 C 16,1 km/h (3 Bft) 98,00 %
05.10.2016 18:32 7,3 C 76 % 1023,4 hPa 0,0 l/m 8,7 km/h (2 Bft) W 273 0 min 0,000 mm 0,0 UV-I 0 W/m 3,4 C 5,5 C 16,1 km/h (3 Bft) 100,00 %
05.10.2016 18:34 7,3 C 76 % 1023,4 hPa 0,0 l/m 10,4 km/h (2 Bft) W-NW 288 0 min 0,000 mm 0,0 UV-I 0 W/m 3,4 C 4,4 C 14,5 km/h (3 Bft) 97,62 %
05.10.2016 18:36 7,3 C 76 % 1023,4 hPa 0,0 l/m 10,6 km/h (2 Bft) W 262 0 min 0,000 mm 0,0 UV-I 0 W/m 3,4 C 4,2 C 17,7 km/h (3 Bft) 98,00 %
05.10.2016 18:38 7,3 C 76 % 1023,4 hPa 0,0 l/m 11,1 km/h (2 Bft) W 265 0 min 0,000 mm 0,0 UV-I 0 W/m 3,4 C 3,9 C 16,1 km/h (3 Bft) 97,56 %
05.10.2016 18:40 7,3 C 76 % 1023,4 hPa 0,0 l/m 11,5 km/h (2 Bft) W-SW 257 0 min 0,000 mm 0,0 UV-I 0 W/m 3,4 C 3,7 C 17,7 km/h (3 Bft) 97,56 %
05.10.2016 18:42 7,3 C 76 % 1023,4 hPa 0,0 l/m 10,7 km/h (2 Bft) W 277 0 min 0,000 mm 0,0 UV-I 0 W/m 3,4 C 4,2 C 14,5 km/h (3 Bft) 96,43 %
05.10.2016 18:44 7,2 C 76 % 1023,5 hPa 0,0 l/m 6,1 km/h (2 Bft) W-SW 255 0 min 0,000 mm 0,0 UV-I 0 W/m 3,3 C 7,2 C 11,3 km/h (2 Bft) 98,00 %
05.10.2016 18:46 7,2 C 77 % 1023,6 hPa 0,0 l/m 8,2 km/h (2 Bft) W-SW 254 0 min 0,000 mm 0,0 UV-I 0 W/m 3,4 C 5,8 C 11,3 km/h (2 Bft) 97,56 %
05.10.2016 18:49 7,2 C 77 % 1023,7 hPa 0,0 l/m 9,0 km/h (2 Bft) N-NW 330 0 min 0,000 mm 0,0 UV-I 0 W/m 3,4 C 5,2 C 16,1 km/h (3 Bft) 96,05 %
05.10.2016 18:50 7,2 C 77 % 1023,7 hPa 0,0 l/m 5,2 km/h (1 Bft) S 191 0 min 0,000 mm 0,0 UV-I 0 W/m 3,4 C 7,2 C 11,3 km/h (2 Bft) 100,00 %
05.10.2016 18:52 7,2 C 78 % 1023,7 hPa 0,0 l/m 4,3 km/h (1 Bft) W-SW 248 0 min 0,000 mm 0,0 UV-I 0 W/m 3,6 C 7,2 C 11,3 km/h (2 Bft) 97,73 %
05.10.2016 18:54 7,2 C 78 % 1023,7 hPa 0,0 l/m 7,7 km/h (2 Bft) SW 235 0 min 0,000 mm 0,0 UV-I 0 W/m 3,6 C 6,1 C 16,1 km/h (3 Bft) 97,73 %
05.10.2016 18:56 7,2 C 78 % 1023,7 hPa 0,0 l/m 5,5 km/h (1 Bft) W 262 0 min 0,000 mm 0,0 UV-I 0 W/m 3,6 C 7,2 C 11,3 km/h (2 Bft) 98,08 %
05.10.2016 18:58 7,2 C 79 % 1023,7 hPa 0,0 l/m 6,5 km/h (2 Bft) W-SW 249 0 min 0,000 mm 0,0 UV-I 0 W/m 3,8 C 7,1 C 14,5 km/h (3 Bft) 100,00 %
05.10.2016 19:00 7,2 C 80 % 1023,6 hPa 0,0 l/m 6,2 km/h (2 Bft) W-NW 283 0 min 0,026 mm 0,0 UV-I 0 W/m 4,0 C 7,2 C 11,3 km/h (2 Bft) 97,87 %
05.10.2016 19:02 7,1 C 81 % 1023,6 hPa 0,0 l/m 5,8 km/h (2 Bft) W 265 0 min 0,000 mm 0,0 UV-I 0 W/m 4,1 C 7,1 C 11,3 km/h (2 Bft) 97,14 %
05.10.2016 19:04 7,1 C 81 % 1023,6 hPa 0,0 l/m 3,9 km/h (1 Bft) W 259 0 min 0,000 mm 0,0 UV-I 0 W/m 4,1 C 7,1 C 6,4 km/h (2 Bft) 97,96 %
05.10.2016 19:06 7,1 C 82 % 1023,6 hPa 0,0 l/m 3,5 km/h (1 Bft) W-SW 252 0 min 0,000 mm 0,0 UV-I 0 W/m 4,2 C 7,1 C 6,4 km/h (2 Bft) 98,00 %
05.10.2016 19:08 7,0 C 82 % 1023,6 hPa 0,0 l/m 3,1 km/h (1 Bft) W 259 0 min 0,000 mm 0,0 UV-I 0 W/m 4,1 C 7,0 C 9,7 km/h (2 Bft) 97,87 %
05.10.2016 19:10 6,9 C 82 % 1023,6 hPa 0,2 l/m 3,9 km/h (1 Bft) W-SW 257 0 min 0,000 mm 0,0 UV-I 0 W/m 4,0 C 6,9 C 9,7 km/h (2 Bft) 93,33 %
05.10.2016 19:12 6,9 C 83 % 1023,5 hPa 0,0 l/m 4,0 km/h (1 Bft) W 281 0 min 0,000 mm 0,0 UV-I 0 W/m 4,2 C 6,9 C 8,0 km/h (2 Bft) 100,00 %
05.10.2016 19:14 6,9 C 83 % 1023,5 hPa 0,0 l/m 4,1 km/h (1 Bft) W-SW 258 0 min 0,000 mm 0,0 UV-I 0 W/m 4,2 C 6,9 C 6,4 km/h (2 Bft) 100,00 %
05.10.2016 19:16 6,8 C 84 % 1023,5 hPa 0,0 l/m 4,7 km/h (1 Bft) W 271 0 min 0,000 mm 0,0 UV-I 0 W/m 4,3 C 6,8 C 6,4 km/h (2 Bft) 95,74 %
05.10.2016 19:18 6,8 C 84 % 1023,5 hPa 0,0 l/m 6,0 km/h (2 Bft) W 269 0 min 0,000 mm 0,0 UV-I 0 W/m 4,3 C 6,8 C 11,3 km/h (2 Bft) 98,00 %
05.10.2016 19:20 6,8 C 84 % 1023,4 hPa 0,0 l/m 6,2 km/h (2 Bft) W 263 0 min 0,000 mm 0,0 UV-I 0 W/m 4,3 C 6,8 C 12,9 km/h (3 Bft) 100,00 %
05.10.2016 19:22 6,8 C 84 % 1023,4 hPa 0,0 l/m 5,1 km/h (1 Bft) W-SW 244 0 min 0,000 mm 0,0 UV-I 0 W/m 4,3 C 6,8 C 11,3 km/h (2 Bft) 100,00 %
05.10.2016 19:24 6,8 C 84 % 1023,4 hPa 0,0 l/m 7,6 km/h (2 Bft) W 264 0 min 0,000 mm 0,0 UV-I 0 W/m 4,3 C 5,8 C 12,9 km/h (3 Bft) 100,00 %
05.10.2016 19:26 6,8 C 84 % 1023,3 hPa 0,0 l/m 7,8 km/h (2 Bft) W 266 0 min 0,000 mm 0,0 UV-I 0 W/m 4,3 C 5,6 C 12,9 km/h (3 Bft) 98,00 %
05.10.2016 19:28 6,8 C 84 % 1023,3 hPa 0,0 l/m 7,4 km/h (2 Bft) W 262 0 min 0,000 mm 0,0 UV-I 0 W/m 4,3 C 6,0 C 12,9 km/h (3 Bft) 100,00 %
05.10.2016 19:30 6,8 C 85 % 1023,3 hPa 0,0 l/m 6,3 km/h (2 Bft) W 265 0 min 0,000 mm 0,0 UV-I 0 W/m 4,5 C 6,8 C 12,9 km/h (3 Bft) 100,00 %
05.10.2016 19:32 6,7 C 85 % 1023,3 hPa 0,0 l/m 5,4 km/h (1 Bft) W-SW 248 0 min 0,000 mm 0,0 UV-I 0 W/m 4,4 C 6,7 C 9,7 km/h (2 Bft) 100,00 %
05.10.2016 19:34 6,8 C 85 % 1023,3 hPa 0,0 l/m 3,8 km/h (1 Bft) W-SW 252 0 min 0,000 mm 0,0 UV-I 0 W/m 4,5 C 6,8 C 9,7 km/h (2 Bft) 100,00 %
05.10.2016 19:36 6,7 C 85 % 1023,4 hPa 0,0 l/m 4,5 km/h (1 Bft) W 266 0 min 0,000 mm 0,0 UV-I 0 W/m 4,4 C 6,7 C 6,4 km/h (2 Bft) 100,00 %
05.10.2016 19:38 6,7 C 85 % 1023,3 hPa 0,0 l/m 4,5 km/h (1 Bft) W-SW 250 0 min 0,000 mm 0,0 UV-I 0 W/m 4,4 C 6,7 C 9,7 km/h (2 Bft) 100,00 %
05.10.2016 19:40 6,7 C 85 % 1023,3 hPa 0,0 l/m 4,7 km/h (1 Bft) W 261 0 min 0,000 mm 0,0 UV-I 0 W/m 4,4 C 6,7 C 8,0 km/h (2 Bft) 100,00 %
05.10.2016 19:42 6,8 C 85 % 1023,3 hPa 0,0 l/m 2,7 km/h (1 Bft) SW 229 0 min 0,000 mm 0,0 UV-I 0 W/m 4,5 C 6,8 C 4,8 km/h (1 Bft) 100,00 %
05.10.2016 19:44 6,8 C 85 % 1023,2 hPa 0,0 l/m 4,9 km/h (1 Bft) W 259 0 min 0,000 mm 0,0 UV-I 0 W/m 4,5 C 6,8 C 11,3 km/h (2 Bft) 100,00 %
05.10.2016 19:46 6,8 C 85 % 1023,2 hPa 0,0 l/m 6,7 km/h (2 Bft) W-SW 253 0 min 0,000 mm 0,0 UV-I 0 W/m 4,5 C 6,6 C 12,9 km/h (3 Bft) 100,00 %
05.10.2016 19:48 6,8 C 85 % 1023,2 hPa 0,0 l/m 6,5 km/h (2 Bft) W 267 0 min 0,000 mm 0,0 UV-I 0 W/m 4,5 C 6,7 C 11,3 km/h (2 Bft) 100,00 %
05.10.2016 19:50 6,8 C 85 % 1023,2 hPa 0,0 l/m 6,4 km/h (2 Bft) W-SW 245 0 min 0,000 mm 0,0 UV-I 0 W/m 4,5 C 6,8 C 9,7 km/h (2 Bft) 100,00 %
05.10.2016 19:52 6,8 C 85 % 1023,2 hPa 0,0 l/m 5,8 km/h (2 Bft) SW 227 0 min 0,000 mm 0,0 UV-I 0 W/m 4,5 C 6,8 C 8,0 km/h (2 Bft) 100,00 %
05.10.2016 19:54 6,8 C 85 % 1023,2 hPa 0,0 l/m 4,7 km/h (1 Bft) W-SW 254 0 min 0,000 mm 0,0 UV-I 0 W/m 4,5 C 6,8 C 6,4 km/h (2 Bft) 100,00 %
05.10.2016 19:56 6,8 C 85 % 1023,2 hPa 0,0 l/m 7,4 km/h (2 Bft) W-SW 242 0 min 0,000 mm 0,0 UV-I 0 W/m 4,5 C 6,0 C 14,5 km/h (3 Bft) 100,00 %
05.10.2016 19:58 6,8 C 85 % 1023,2 hPa 0,0 l/m 5,8 km/h (2 Bft) W 268 0 min 0,000 mm 0,0 UV-I 0 W/m 4,5 C 6,8 C 12,9 km/h (3 Bft) 97,73 %
05.10.2016 20:00 6,8 C 85 % 1023,2 hPa 0,0 l/m 4,6 km/h (1 Bft) W-SW 253 0 min 0,000 mm 0,0 UV-I 0 W/m 4,5 C 6,8 C 9,7 km/h (2 Bft) 100,00 %
05.10.2016 20:02 6,8 C 85 % 1023,2 hPa 0,0 l/m 3,7 km/h (1 Bft) SW 217 0 min 0,000 mm 0,0 UV-I 0 W/m 4,5 C 6,8 C 8,0 km/h (2 Bft) 100,00 %
05.10.2016 20:04 6,8 C 85 % 1023,1 hPa 0,0 l/m 5,4 km/h (1 Bft) SW 234 0 min 0,000 mm 0,0 UV-I 0 W/m 4,5 C 6,8 C 9,7 km/h (2 Bft) 100,00 %
05.10.2016 20:06 6,8 C 85 % 1023,1 hPa 0,0 l/m 4,7 km/h (1 Bft) W 259 0 min 0,000 mm 0,0 UV-I 0 W/m 4,5 C 6,8 C 6,4 km/h (2 Bft) 97,37 %
05.10.2016 20:08 6,8 C 85 % 1023,0 hPa 0,0 l/m 5,6 km/h (1 Bft) W-SW 257 0 min 0,000 mm 0,0 UV-I 0 W/m 4,5 C 6,8 C 8,0 km/h (2 Bft) 100,00 %
05.10.2016 20:10 6,8 C 85 % 1023,0 hPa 0,0 l/m 6,8 km/h (2 Bft) W-SW 249 0 min 0,000 mm 0,0 UV-I 0 W/m 4,5 C 6,5 C 12,9 km/h (3 Bft) 100,00 %
05.10.2016 20:12 6,8 C 85 % 1023,0 hPa 0,0 l/m 7,2 km/h (2 Bft) W-SW 240 0 min 0,000 mm 0,0 UV-I 0 W/m 4,5 C 6,1 C 11,3 km/h (2 Bft) 100,00 %
05.10.2016 20:14 6,8 C 85 % 1023,0 hPa 0,0 l/m 6,9 km/h (2 Bft) W 268 0 min 0,000 mm 0,0 UV-I 0 W/m 4,5 C 6,4 C 11,3 km/h (2 Bft) 100,00 %
05.10.2016 20:16 6,8 C 85 % 1023,0 hPa 0,0 l/m 8,0 km/h (2 Bft) W 265 0 min 0,000 mm 0,0 UV-I 0 W/m 4,5 C 5,5 C 12,9 km/h (3 Bft) 98,21 %
05.10.2016 20:18 6,8 C 85 % 1022,9 hPa 0,0 l/m 7,1 km/h (2 Bft) W 265 0 min 0,000 mm 0,0 UV-I 0 W/m 4,5 C 6,2 C 11,3 km/h (2 Bft) 100,00 %
05.10.2016 20:20 6,8 C 86 % 1022,9 hPa 0,0 l/m 6,9 km/h (2 Bft) W-SW 252 0 min 0,000 mm 0,0 UV-I 0 W/m 4,6 C 6,4 C 11,3 km/h (2 Bft) 100,00 %
05.10.2016 20:22 6,8 C 86 % 1022,8 hPa 0,0 l/m 8,8 km/h (2 Bft) W-SW 252 0 min 0,000 mm 0,0 UV-I 0 W/m 4,6 C 4,9 C 12,9 km/h (3 Bft) 100,00 %
05.10.2016 20:24 6,8 C 85 % 1022,8 hPa 0,0 l/m 10,3 km/h (2 Bft) W 263 0 min 0,000 mm 0,0 UV-I 0 W/m 4,5 C 3,9 C 14,5 km/h (3 Bft) 100,00 %
05.10.2016 20:26 6,8 C 85 % 1022,7 hPa 0,0 l/m 9,4 km/h (2 Bft) W-SW 238 0 min 0,000 mm 0,0 UV-I 0 W/m 4,5 C 4,5 C 16,1 km/h (3 Bft) 100,00 %
05.10.2016 20:28 6,8 C 86 % 1022,8 hPa 0,0 l/m 7,4 km/h (2 Bft) W-SW 254 0 min 0,000 mm 0,0 UV-I 0 W/m 4,6 C 6,0 C 11,3 km/h (2 Bft) 100,00 %
05.10.2016 20:30 6,8 C 86 % 1022,8 hPa 0,0 l/m 7,0 km/h (2 Bft) W-SW 240 0 min 0,000 mm 0,0 UV-I 0 W/m 4,6 C 6,3 C 11,3 km/h (2 Bft) 100,00 %
05.10.2016 20:32 6,8 C 86 % 1022,8 hPa 0,0 l/m 10,0 km/h (2 Bft) W-SW 252 0 min 0,000 mm 0,0 UV-I 0 W/m 4,6 C 4,1 C 17,7 km/h (3 Bft) 98,08 %
05.10.2016 20:34 6,8 C 85 % 1022,7 hPa 0,0 l/m 8,0 km/h (2 Bft) W-SW 251 0 min 0,000 mm 0,0 UV-I 0 W/m 4,5 C 5,5 C 11,3 km/h (2 Bft) 100,00 %
05.10.2016 20:36 6,8 C 86 % 1022,7 hPa 0,0 l/m 8,6 km/h (2 Bft) W-SW 252 0 min 0,000 mm 0,0 UV-I 0 W/m 4,6 C 5,0 C 12,9 km/h (3 Bft) 98,21 %
05.10.2016 20:38 6,8 C 86 % 1022,7 hPa 0,0 l/m 8,9 km/h (2 Bft) W 260 0 min 0,000 mm 0,0 UV-I 0 W/m 4,6 C 4,8 C 12,9 km/h (3 Bft) 97,37 %
05.10.2016 20:40 6,8 C 85 % 1022,7 hPa 0,0 l/m 11,2 km/h (2 Bft) W-SW 246 0 min 0,000 mm 0,0 UV-I 0 W/m 4,5 C 3,3 C 16,1 km/h (3 Bft) 98,00 %
05.10.2016 20:42 6,8 C 85 % 1022,7 hPa 0,0 l/m 10,7 km/h (2 Bft) W-SW 246 0 min 0,000 mm 0,0 UV-I 0 W/m 4,5 C 3,6 C 16,1 km/h (3 Bft) 95,74 %
05.10.2016 20:44 6,7 C 85 % 1022,7 hPa 0,0 l/m 9,1 km/h (2 Bft) W-SW 245 0 min 0,000 mm 0,0 UV-I 0 W/m 4,4 C 4,6 C 14,5 km/h (3 Bft) 98,00 %
05.10.2016 20:46 6,7 C 85 % 1022,6 hPa 0,0 l/m 11,9 km/h (2 Bft) SW 223 0 min 0,000 mm 0,0 UV-I 0 W/m 4,4 C 2,8 C 19,3 km/h (3 Bft) 98,00 %
05.10.2016 20:48 6,7 C 85 % 1022,6 hPa 0,0 l/m 10,6 km/h (2 Bft) SW 220 0 min 0,000 mm 0,0 UV-I 0 W/m 4,4 C 3,6 C 16,1 km/h (3 Bft) 97,14 %
05.10.2016 20:50 6,7 C 85 % 1022,6 hPa 0,0 l/m 9,8 km/h (2 Bft) W-SW 249 0 min 0,000 mm 0,0 UV-I 0 W/m 4,4 C 4,1 C 16,1 km/h (3 Bft) 98,21 %
05.10.2016 20:52 6,7 C 86 % 1022,6 hPa 0,0 l/m 11,0 km/h (2 Bft) SW 225 0 min 0,000 mm 0,0 UV-I 0 W/m 4,5 C 3,3 C 16,1 km/h (3 Bft) 97,37 %
05.10.2016 20:54 6,7 C 86 % 1022,5 hPa 0,0 l/m 10,4 km/h (2 Bft) SW 222 0 min 0,000 mm 0,0 UV-I 0 W/m 4,5 C 3,7 C 16,1 km/h (3 Bft) 98,11 %
05.10.2016 20:56 6,7 C 86 % 1022,6 hPa 0,0 l/m 9,0 km/h (2 Bft) SW 229 0 min 0,000 mm 0,0 UV-I 0 W/m 4,5 C 4,6 C 14,5 km/h (3 Bft) 95,74 %
05.10.2016 20:58 6,6 C 86 % 1022,5 hPa 0,0 l/m 9,2 km/h (2 Bft) SW 217 0 min 0,000 mm 0,0 UV-I 0 W/m 4,4 C 4,4 C 16,1 km/h (3 Bft) 96,23 %
05.10.2016 21:00 6,6 C 86 % 1022,5 hPa 0,0 l/m 10,2 km/h (2 Bft) SW 225 0 min 0,025 mm 0,0 UV-I 0 W/m 4,4 C 3,7 C 14,5 km/h (3 Bft) 97,37 %
05.10.2016 21:02 6,6 C 86 % 1022,5 hPa 0,0 l/m 11,8 km/h (2 Bft) W-SW 255 0 min 0,000 mm 0,0 UV-I 0 W/m 4,4 C 2,7 C 19,3 km/h (3 Bft) 97,87 %
05.10.2016 21:04 6,6 C 87 % 1022,5 hPa 0,0 l/m 9,2 km/h (2 Bft) W-SW 246 0 min 0,000 mm 0,0 UV-I 0 W/m 4,6 C 4,4 C 14,5 km/h (3 Bft) 98,11 %
05.10.2016 21:06 6,6 C 87 % 1022,5 hPa 0,0 l/m 11,8 km/h (2 Bft) W-SW 239 0 min 0,000 mm 0,0 UV-I 0 W/m 4,6 C 2,7 C 17,7 km/h (3 Bft) 97,56 %
05.10.2016 21:08 6,6 C 87 % 1022,4 hPa 0,0 l/m 12,7 km/h (3 Bft) W-SW 241 0 min 0,000 mm 0,0 UV-I 0 W/m 4,6 C 2,2 C 17,7 km/h (3 Bft) 97,73 %
05.10.2016 21:10 6,6 C 86 % 1022,3 hPa 0,0 l/m 13,6 km/h (3 Bft) SW 223 0 min 0,000 mm 0,0 UV-I 0 W/m 4,4 C 1,7 C 20,9 km/h (4 Bft) 97,92 %
05.10.2016 21:12 6,6 C 86 % 1022,2 hPa 0,0 l/m 16,6 km/h (3 Bft) W-SW 243 0 min 0,000 mm 0,0 UV-I 0 W/m 4,4 C 0,3 C 25,7 km/h (4 Bft) 97,87 %
05.10.2016 21:14 6,6 C 85 % 1022,2 hPa 0,0 l/m 12,8 km/h (3 Bft) W 278 0 min 0,000 mm 0,0 UV-I 0 W/m 4,3 C 2,1 C 22,5 km/h (4 Bft) 97,87 %
05.10.2016 21:16 6,7 C 85 % 1022,2 hPa 0,0 l/m 13,0 km/h (3 Bft) W-SW 252 0 min 0,000 mm 0,0 UV-I 0 W/m 4,4 C 2,2 C 20,9 km/h (4 Bft) 98,00 %
05.10.2016 21:18 6,7 C 85 % 1022,2 hPa 0,0 l/m 14,8 km/h (3 Bft) SW 230 0 min 0,000 mm 0,0 UV-I 0 W/m 4,4 C 1,2 C 20,9 km/h (4 Bft) 100,00 %
05.10.2016 21:20 6,7 C 85 % 1022,2 hPa 0,0 l/m 13,8 km/h (3 Bft) W-SW 244 0 min 0,000 mm 0,0 UV-I 0 W/m 4,4 C 1,7 C 19,3 km/h (3 Bft) 100,00 %
05.10.2016 21:22 6,7 C 85 % 1022,1 hPa 0,0 l/m 12,2 km/h (2 Bft) NW 309 0 min 0,000 mm 0,0 UV-I 0 W/m 4,4 C 2,6 C 17,7 km/h (3 Bft) 100,00 %
05.10.2016 21:24 6,7 C 85 % 1022,2 hPa 0,0 l/m 14,6 km/h (3 Bft) W 269 0 min 0,000 mm 0,0 UV-I 0 W/m 4,4 C 1,3 C 22,5 km/h (4 Bft) 97,37 %
05.10.2016 21:26 6,7 C 85 % 1022,1 hPa 0,0 l/m 13,1 km/h (3 Bft) W-SW 242 0 min 0,000 mm 0,0 UV-I 0 W/m 4,4 C 2,1 C 20,9 km/h (4 Bft) 97,87 %
05.10.2016 21:28 6,7 C 85 % 1022,1 hPa 0,0 l/m 11,9 km/h (2 Bft) W-SW 257 0 min 0,000 mm 0,0 UV-I 0 W/m 4,4 C 2,8 C 17,7 km/h (3 Bft) 100,00 %
05.10.2016 21:30 6,8 C 84 % 1022,0 hPa 0,0 l/m 15,1 km/h (3 Bft) W 276 0 min 0,000 mm 0,0 UV-I 0 W/m 4,3 C 1,2 C 24,1 km/h (4 Bft) 100,00 %
05.10.2016 21:32 6,8 C 84 % 1021,9 hPa 0,0 l/m 12,6 km/h (3 Bft) W-SW 252 0 min 0,000 mm 0,0 UV-I 0 W/m 4,3 C 2,5 C 19,3 km/h (3 Bft) 100,00 %
05.10.2016 21:34 6,8 C 84 % 1021,9 hPa 0,0 l/m 11,3 km/h (2 Bft) W 271 0 min 0,000 mm 0,0 UV-I 0 W/m 4,3 C 3,2 C 19,3 km/h (3 Bft) 100,00 %
05.10.2016 21:36 6,8 C 84 % 1021,9 hPa 0,0 l/m 12,3 km/h (3 Bft) W-SW 250 0 min 0,000 mm 0,0 UV-I 0 W/m 4,3 C 2,7 C 16,1 km/h (3 Bft) 98,00 %
05.10.2016 21:38 6,8 C 84 % 1021,9 hPa 0,0 l/m 11,4 km/h (2 Bft) W-SW 253 0 min 0,000 mm 0,0 UV-I 0 W/m 4,3 C 3,2 C 16,1 km/h (3 Bft) 98,11 %
05.10.2016 21:40 6,8 C 84 % 1021,9 hPa 0,0 l/m 12,7 km/h (3 Bft) W-SW 239 0 min 0,000 mm 0,0 UV-I 0 W/m 4,3 C 2,4 C 17,7 km/h (3 Bft) 100,00 %
05.10.2016 21:42 6,8 C 84 % 1021,9 hPa 0,0 l/m 11,7 km/h (2 Bft) W-SW 243 0 min 0,000 mm 0,0 UV-I 0 W/m 4,3 C 3,0 C 17,7 km/h (3 Bft) 100,00 %
05.10.2016 21:44 6,8 C 84 % 1021,8 hPa 0,0 l/m 12,8 km/h (3 Bft) W-SW 252 0 min 0,000 mm 0,0 UV-I 0 W/m 4,3 C 2,4 C 20,9 km/h (4 Bft) 100,00 %
05.10.2016 21:46 6,8 C 84 % 1021,8 hPa 0,0 l/m 12,1 km/h (2 Bft) W 261 0 min 0,000 mm 0,0 UV-I 0 W/m 4,3 C 2,8 C 16,1 km/h (3 Bft) 100,00 %
05.10.2016 21:48 6,8 C 85 % 1021,8 hPa 0,0 l/m 11,3 km/h (2 Bft) W-SW 254 0 min 0,000 mm 0,0 UV-I 0 W/m 4,5 C 3,2 C 16,1 km/h (3 Bft) 100,00 %
05.10.2016 21:50 6,8 C 85 % 1021,8 hPa 0,0 l/m 13,4 km/h (3 Bft) W-SW 247 0 min 0,000 mm 0,0 UV-I 0 W/m 4,5 C 2,1 C 19,3 km/h (3 Bft) 98,44 %
05.10.2016 21:52 6,7 C 85 % 1021,8 hPa 0,0 l/m 14,4 km/h (3 Bft) SW 231 0 min 0,000 mm 0,0 UV-I 0 W/m 4,4 C 1,4 C 22,5 km/h (4 Bft) 100,00 %
05.10.2016 21:54 6,8 C 85 % 1021,7 hPa 0,0 l/m 13,9 km/h (3 Bft) W 266 0 min 0,000 mm 0,0 UV-I 0 W/m 4,5 C 1,8 C 17,7 km/h (3 Bft) 100,00 %
05.10.2016 21:56 6,7 C 85 % 1021,7 hPa 0,0 l/m 15,0 km/h (3 Bft) W-SW 250 0 min 0,000 mm 0,0 UV-I 0 W/m 4,4 C 1,1 C 22,5 km/h (4 Bft) 97,37 %
05.10.2016 21:58 6,8 C 84 % 1021,6 hPa 0,0 l/m 14,1 km/h (3 Bft) W-SW 243 0 min 0,000 mm 0,0 UV-I 0 W/m 4,3 C 1,7 C 20,9 km/h (4 Bft) 100,00 %
05.10.2016 22:00 6,8 C 84 % 1021,7 hPa 0,0 l/m 15,2 km/h (3 Bft) W-SW 237 0 min 0,025 mm 0,0 UV-I 0 W/m 4,3 C 1,2 C 20,9 km/h (4 Bft) 100,00 %
05.10.2016 22:03 6,8 C 84 % 1021,7 hPa 0,0 l/m 14,1 km/h (3 Bft) W 268 0 min 0,000 mm 0,0 UV-I 0 W/m 4,3 C 1,7 C 20,9 km/h (4 Bft) 98,63 %
05.10.2016 22:04 6,8 C 84 % 1021,7 hPa 0,0 l/m 16,2 km/h (3 Bft) W 265 0 min 0,000 mm 0,0 UV-I 0 W/m 4,3 C 0,7 C 27,4 km/h (4 Bft) 95,83 %
05.10.2016 22:06 6,8 C 84 % 1021,6 hPa 0,0 l/m 12,3 km/h (3 Bft) W-SW 244 0 min 0,000 mm 0,0 UV-I 0 W/m 4,3 C 2,7 C 19,3 km/h (3 Bft) 100,00 %
05.10.2016 22:08 6,8 C 84 % 1021,6 hPa 0,0 l/m 15,8 km/h (3 Bft) SW 233 0 min 0,000 mm 0,0 UV-I 0 W/m 4,3 C 0,9 C 20,9 km/h (4 Bft) 100,00 %
05.10.2016 22:10 6,8 C 84 % 1021,6 hPa 0,0 l/m 13,6 km/h (3 Bft) W-SW 258 0 min 0,000 mm 0,0 UV-I 0 W/m 4,3 C 2,0 C 20,9 km/h (4 Bft) 98,00 %
05.10.2016 22:12 6,8 C 84 % 1021,6 hPa 0,0 l/m 13,9 km/h (3 Bft) W-SW 250 0 min 0,000 mm 0,0 UV-I 0 W/m 4,3 C 1,8 C 20,9 km/h (4 Bft) 100,00 %
05.10.2016 22:14 6,8 C 84 % 1021,5 hPa 0,0 l/m 14,5 km/h (3 Bft) W-SW 243 0 min 0,000 mm 0,0 UV-I 0 W/m 4,3 C 1,5 C 19,3 km/h (3 Bft) 100,00 %
05.10.2016 22:16 6,8 C 84 % 1021,5 hPa 0,0 l/m 16,5 km/h (3 Bft) W 269 0 min 0,000 mm 0,0 UV-I 0 W/m 4,3 C 0,6 C 24,1 km/h (4 Bft) 100,00 %
05.10.2016 22:18 6,8 C 84 % 1021,5 hPa 0,0 l/m 15,0 km/h (3 Bft) W-SW 257 0 min 0,000 mm 0,0 UV-I 0 W/m 4,3 C 1,3 C 22,5 km/h (4 Bft) 100,00 %
05.10.2016 22:20 6,8 C 84 % 1021,5 hPa 0,0 l/m 16,0 km/h (3 Bft) SW 230 0 min 0,000 mm 0,0 UV-I 0 W/m 4,3 C 0,8 C 24,1 km/h (4 Bft) 100,00 %
05.10.2016 22:22 6,8 C 84 % 1021,5 hPa 0,0 l/m 17,1 km/h (3 Bft) W-SW 244 0 min 0,000 mm 0,0 UV-I 0 W/m 4,3 C 0,3 C 22,5 km/h (4 Bft) 100,00 %
05.10.2016 22:24 6,8 C 84 % 1021,5 hPa 0,0 l/m 20,3 km/h (4 Bft) W-SW 246 0 min 0,000 mm 0,0 UV-I 0 W/m 4,3 C -1,0 C 27,4 km/h (4 Bft) 100,00 %
05.10.2016 22:26 6,8 C 84 % 1021,5 hPa 0,0 l/m 15,6 km/h (3 Bft) W-SW 244 0 min 0,000 mm 0,0 UV-I 0 W/m 4,3 C 1,0 C 25,7 km/h (4 Bft) 100,00 %
05.10.2016 22:28 6,8 C 84 % 1021,4 hPa 0,0 l/m 16,2 km/h (3 Bft) W-SW 248 0 min 0,000 mm 0,0 UV-I 0 W/m 4,3 C 0,7 C 29,0 km/h (5 Bft) 97,87 %
05.10.2016 22:30 6,8 C 84 % 1021,4 hPa 0,0 l/m 17,1 km/h (3 Bft) W 261 0 min 0,000 mm 0,0 UV-I 0 W/m 4,3 C 0,3 C 25,7 km/h (4 Bft) 100,00 %
05.10.2016 22:32 6,8 C 84 % 1021,4 hPa 0,0 l/m 17,7 km/h (3 Bft) W 265 0 min 0,000 mm 0,0 UV-I 0 W/m 4,3 C 0,1 C 24,1 km/h (4 Bft) 100,00 %
05.10.2016 22:34 6,8 C 84 % 1021,4 hPa 0,0 l/m 17,1 km/h (3 Bft) W 273 0 min 0,000 mm 0,0 UV-I 0 W/m 4,3 C 0,3 C 24,1 km/h (4 Bft) 100,00 %
05.10.2016 22:36 6,8 C 84 % 1021,4 hPa 0,0 l/m 14,6 km/h (3 Bft) W-SW 240 0 min 0,000 mm 0,0 UV-I 0 W/m 4,3 C 1,5 C 19,3 km/h (3 Bft) 100,00 %
05.10.2016 22:38 6,8 C 84 % 1021,4 hPa 0,0 l/m 15,7 km/h (3 Bft) W-SW 252 0 min 0,000 mm 0,0 UV-I 0 W/m 4,3 C 0,9 C 25,7 km/h (4 Bft) 100,00 %
05.10.2016 22:40 6,8 C 84 % 1021,4 hPa 0,0 l/m 16,7 km/h (3 Bft) W-SW 257 0 min 0,000 mm 0,0 UV-I 0 W/m 4,3 C 0,5 C 24,1 km/h (4 Bft) 100,00 %
05.10.2016 22:42 6,8 C 84 % 1021,4 hPa 0,0 l/m 12,3 km/h (3 Bft) W-SW 257 0 min 0,000 mm 0,0 UV-I 0 W/m 4,3 C 2,7 C 19,3 km/h (3 Bft) 93,62 %
05.10.2016 22:44 6,8 C 84 % 1021,4 hPa 0,0 l/m 13,2 km/h (3 Bft) W 262 0 min 0,000 mm 0,0 UV-I 0 W/m 4,3 C 2,2 C 24,1 km/h (4 Bft) 98,00 %
05.10.2016 22:46 6,8 C 84 % 1021,4 hPa 0,0 l/m 12,6 km/h (3 Bft) W-SW 258 0 min 0,000 mm 0,0 UV-I 0 W/m 4,3 C 2,5 C 20,9 km/h (4 Bft) 97,14 %
05.10.2016 22:48 6,8 C 84 % 1021,4 hPa 0,0 l/m 15,9 km/h (3 Bft) W-SW 245 0 min 0,000 mm 0,0 UV-I 0 W/m 4,3 C 0,8 C 22,5 km/h (4 Bft) 96,23 %
05.10.2016 22:50 6,8 C 83 % 1021,3 hPa 0,0 l/m 15,8 km/h (3 Bft) W-SW 242 0 min 0,000 mm 0,0 UV-I 0 W/m 4,1 C 0,9 C 20,9 km/h (4 Bft) 97,56 %
05.10.2016 22:52 6,8 C 83 % 1021,3 hPa 0,0 l/m 12,8 km/h (3 Bft) W 268 0 min 0,000 mm 0,0 UV-I 0 W/m 4,1 C 2,4 C 20,9 km/h (4 Bft) 98,00 %
05.10.2016 22:54 6,8 C 83 % 1021,2 hPa 0,0 l/m 16,6 km/h (3 Bft) SW 231 0 min 0,000 mm 0,0 UV-I 0 W/m 4,1 C 0,5 C 25,7 km/h (4 Bft) 98,00 %
05.10.2016 22:56 6,8 C 83 % 1021,2 hPa 0,0 l/m 13,1 km/h (3 Bft) W-SW 244 0 min 0,000 mm 0,0 UV-I 0 W/m 4,1 C 2,2 C 17,7 km/h (3 Bft) 98,00 %
05.10.2016 22:58 6,8 C 83 % 1021,2 hPa 0,0 l/m 16,0 km/h (3 Bft) W 263 0 min 0,000 mm 0,0 UV-I 0 W/m 4,1 C 0,8 C 25,7 km/h (4 Bft) 95,74 %
05.10.2016 23:00 6,8 C 83 % 1021,2 hPa 0,0 l/m 13,0 km/h (3 Bft) SW 236 0 min 0,000 mm 0,0 UV-I 0 W/m 4,1 C 2,3 C 19,3 km/h (3 Bft) 100,00 %
05.10.2016 23:02 6,8 C 83 % 1021,2 hPa 0,0 l/m 13,6 km/h (3 Bft) W-SW 238 0 min 0,026 mm 0,0 UV-I 0 W/m 4,1 C 2,0 C 19,3 km/h (3 Bft) 97,01 %
05.10.2016 23:04 6,8 C 83 % 1021,2 hPa 0,0 l/m 14,3 km/h (3 Bft) W-SW 244 0 min 0,000 mm 0,0 UV-I 0 W/m 4,1 C 1,6 C 20,9 km/h (4 Bft) 98,00 %
05.10.2016 23:06 6,8 C 83 % 1021,1 hPa 0,0 l/m 16,8 km/h (3 Bft) W-SW 252 0 min 0,000 mm 0,0 UV-I 0 W/m 4,1 C 0,4 C 22,5 km/h (4 Bft) 94,74 %
05.10.2016 23:08 6,8 C 83 % 1021,1 hPa 0,0 l/m 14,4 km/h (3 Bft) W-SW 255 0 min 0,000 mm 0,0 UV-I 0 W/m 4,1 C 1,5 C 22,5 km/h (4 Bft) 97,92 %
05.10.2016 23:10 6,8 C 83 % 1021,1 hPa 0,0 l/m 14,1 km/h (3 Bft) SW 231 0 min 0,000 mm 0,0 UV-I 0 W/m 4,1 C 1,7 C 22,5 km/h (4 Bft) 97,87 %
05.10.2016 23:12 6,8 C 84 % 1021,1 hPa 0,0 l/m 13,6 km/h (3 Bft) W-SW 240 0 min 0,000 mm 0,0 UV-I 0 W/m 4,3 C 2,0 C 24,1 km/h (4 Bft) 97,87 %
05.10.2016 23:14 6,8 C 84 % 1021,1 hPa 0,0 l/m 15,4 km/h (3 Bft) W-SW 256 0 min 0,000 mm 0,0 UV-I 0 W/m 4,3 C 1,1 C 22,5 km/h (4 Bft) 95,74 %
05.10.2016 23:16 6,8 C 84 % 1021,0 hPa 0,0 l/m 14,3 km/h (3 Bft) W-SW 239 0 min 0,000 mm 0,0 UV-I 0 W/m 4,3 C 1,6 C 22,5 km/h (4 Bft) 100,00 %
05.10.2016 23:19 6,8 C 84 % 1021,0 hPa 0,0 l/m 14,0 km/h (3 Bft) W-SW 255 0 min 0,000 mm 0,0 UV-I 0 W/m 4,3 C 1,8 C 25,7 km/h (4 Bft) 100,00 %
05.10.2016 23:20 6,7 C 84 % 1021,0 hPa 0,0 l/m 10,9 km/h (2 Bft) W-SW 240 0 min 0,000 mm 0,0 UV-I 0 W/m 4,2 C 3,4 C 14,5 km/h (3 Bft) 96,55 %
05.10.2016 23:22 6,7 C 85 % 1021,0 hPa 0,0 l/m 15,0 km/h (3 Bft) SW 219 0 min 0,000 mm 0,0 UV-I 0 W/m 4,4 C 1,1 C 25,7 km/h (4 Bft) 100,00 %
05.10.2016 23:24 6,7 C 85 % 1021,0 hPa 0,0 l/m 11,7 km/h (2 Bft) W-SW 256 0 min 0,000 mm 0,0 UV-I 0 W/m 4,4 C 2,9 C 16,1 km/h (3 Bft) 100,00 %
05.10.2016 23:26 6,7 C 85 % 1021,0 hPa 0,0 l/m 15,3 km/h (3 Bft) W-SW 243 0 min 0,000 mm 0,0 UV-I 0 W/m 4,4 C 1,0 C 22,5 km/h (4 Bft) 97,87 %
05.10.2016 23:28 6,7 C 85 % 1020,9 hPa 0,0 l/m 14,6 km/h (3 Bft) W 260 0 min 0,000 mm 0,0 UV-I 0 W/m 4,4 C 1,3 C 20,9 km/h (4 Bft) 100,00 %
05.10.2016 23:30 6,7 C 85 % 1020,9 hPa 0,0 l/m 13,9 km/h (3 Bft) SW 217 0 min 0,000 mm 0,0 UV-I 0 W/m 4,4 C 1,7 C 19,3 km/h (3 Bft) 96,15 %
05.10.2016 23:32 6,7 C 85 % 1020,9 hPa 0,0 l/m 15,4 km/h (3 Bft) SW 225 0 min 0,000 mm 0,0 UV-I 0 W/m 4,4 C 0,9 C 20,9 km/h (4 Bft) 98,53 %
05.10.2016 23:34 6,7 C 85 % 1020,9 hPa 0,0 l/m 14,0 km/h (3 Bft) S-SW 213 0 min 0,000 mm 0,0 UV-I 0 W/m 4,4 C 1,6 C 19,3 km/h (3 Bft) 100,00 %
05.10.2016 23:36 6,7 C 85 % 1020,9 hPa 0,0 l/m 13,4 km/h (3 Bft) SW 234 0 min 0,000 mm 0,0 UV-I 0 W/m 4,4 C 1,9 C 20,9 km/h (4 Bft) 98,21 %
05.10.2016 23:38 6,7 C 85 % 1020,8 hPa 0,0 l/m 15,8 km/h (3 Bft) SW 219 0 min 0,000 mm 0,0 UV-I 0 W/m 4,4 C 0,8 C 22,5 km/h (4 Bft) 100,00 %
05.10.2016 23:40 6,6 C 86 % 1020,7 hPa 0,0 l/m 11,4 km/h (2 Bft) W 273 0 min 0,000 mm 0,0 UV-I 0 W/m 4,4 C 3,0 C 16,1 km/h (3 Bft) 100,00 %
05.10.2016 23:43 6,6 C 86 % 1020,6 hPa 0,0 l/m 13,7 km/h (3 Bft) W 266 0 min 0,000 mm 0,0 UV-I 0 W/m 4,4 C 1,7 C 19,3 km/h (3 Bft) 97,50 %
05.10.2016 23:44 6,6 C 86 % 1020,6 hPa 0,0 l/m 9,7 km/h (2 Bft) SW 232 0 min 0,000 mm 0,0 UV-I 0 W/m 4,4 C 4,0 C 14,5 km/h (3 Bft) 100,00 %
05.10.2016 23:46 6,6 C 86 % 1020,6 hPa 0,0 l/m 13,8 km/h (3 Bft) SW 229 0 min 0,000 mm 0,0 UV-I 0 W/m 4,4 C 1,6 C 20,9 km/h (4 Bft) 97,62 %
05.10.2016 23:48 6,6 C 86 % 1020,6 hPa 0,0 l/m 16,3 km/h (3 Bft) W-SW 250 0 min 0,000 mm 0,0 UV-I 0 W/m 4,4 C 0,4 C 20,9 km/h (4 Bft) 100,00 %
05.10.2016 23:50 6,6 C 86 % 1020,6 hPa 0,0 l/m 13,5 km/h (3 Bft) W-SW 256 0 min 0,000 mm 0,0 UV-I 0 W/m 4,4 C 1,8 C 20,9 km/h (4 Bft) 100,00 %
05.10.2016 23:52 6,6 C 86 % 1020,5 hPa 0,0 l/m 13,8 km/h (3 Bft) SW 225 0 min 0,000 mm 0,0 UV-I 0 W/m 4,4 C 1,6 C 19,3 km/h (3 Bft) 100,00 %
05.10.2016 23:54 6,5 C 86 % 1020,4 hPa 0,0 l/m 17,3 km/h (3 Bft) W-SW 240 0 min 0,000 mm 0,0 UV-I 0 W/m 4,3 C -0,2 C 25,7 km/h (4 Bft) 97,22 %
05.10.2016 23:56 6,6 C 86 % 1020,4 hPa 0,0 l/m 14,4 km/h (3 Bft) W-SW 250 0 min 0,000 mm 0,0 UV-I 0 W/m 4,4 C 1,3 C 25,7 km/h (4 Bft) 100,00 %
05.10.2016 23:58 6,6 C 86 % 1020,4 hPa 0,0 l/m 17,9 km/h (3 Bft) W 276 0 min 0,000 mm 0,0 UV-I 0 W/m 4,4 C -0,3 C 25,7 km/h (4 Bft) 100,00 %
_ Min-Zeit 03:04 13:34 23:54 - 00:30 - - - - - - 13:36 22:24 00:30 11:42
Minimum _ 3,4 C 56 % 1020,4 hPa - 0,0 km/h (0 Bft) - - - - - - 1,6 C -1,0 C 0,0 km/h (0 Bft) 92,11 %
_ Max-Zeit 13:28 06:20 00:00 15:04 22:24 - - 18:09 13:00 12:50 13:26 15:28 13:28 22:28 00:12
Maximum _ 10,4 C 97 % 1028,6 hPa 0,2 l/m 20,3 km/h
W-SW (4 Bft)
- - 3 min 0,254 mm 2,6 UV-I 861 W/m 5,2 C 10,4 C 29,0 km/h
W-SW (5 Bft)
100,00 %
Durchschnitt _ 6,6 C 82 % 1025,6 hPa #0,8 l/m 5,8 km/h (2 Bft) W-SW - #6:07 h #1,575 mm 1,2 UV-I 253 W/m 3,6 C 5,5 C 10,3 km/h (2 Bft) 98,74 %